Wetterdaten: Montag, 01.08.2016
Datum Zeit Temp. A. Feuchte A. Luftdruck Regen Wind Richtung Richtung Sonnenschein ET UV Solar Taupunkt Windchill Windben Empfang
01.08.2016 00:00 18,0 C 90 % 1012,8 hPa 0,0 l/m 8,0 km/h (2 Bft) SW 221 0 min 0,000 mm 0,0 UV-I 0 W/m 16,3 C 17,3 C 12,9 km/h (3 Bft) 98,21 %
01.08.2016 00:02 18,0 C 90 % 1012,9 hPa 0,0 l/m 9,2 km/h (2 Bft) SW 222 0 min 0,000 mm 0,0 UV-I 0 W/m 16,3 C 16,7 C 16,1 km/h (3 Bft) 100,00 %
01.08.2016 00:04 18,0 C 90 % 1012,9 hPa 0,0 l/m 9,4 km/h (2 Bft) W-SW 238 0 min 0,000 mm 0,0 UV-I 0 W/m 16,3 C 16,7 C 12,9 km/h (3 Bft) 100,00 %
01.08.2016 00:06 18,0 C 90 % 1012,9 hPa 0,0 l/m 9,3 km/h (2 Bft) W-SW 255 0 min 0,000 mm 0,0 UV-I 0 W/m 16,3 C 16,7 C 12,9 km/h (3 Bft) 100,00 %
01.08.2016 00:08 18,0 C 90 % 1012,9 hPa 0,0 l/m 10,4 km/h (2 Bft) W-SW 238 0 min 0,000 mm 0,0 UV-I 0 W/m 16,3 C 16,3 C 14,5 km/h (3 Bft) 100,00 %
01.08.2016 00:10 18,0 C 90 % 1012,9 hPa 0,0 l/m 11,0 km/h (2 Bft) W 259 0 min 0,000 mm 0,0 UV-I 0 W/m 16,3 C 16,1 C 14,5 km/h (3 Bft) 97,87 %
01.08.2016 00:12 18,1 C 90 % 1012,9 hPa 0,0 l/m 12,0 km/h (2 Bft) W-SW 248 0 min 0,000 mm 0,0 UV-I 0 W/m 16,4 C 15,8 C 16,1 km/h (3 Bft) 97,56 %
01.08.2016 00:14 18,1 C 89 % 1012,9 hPa 0,0 l/m 8,9 km/h (2 Bft) W-SW 249 0 min 0,000 mm 0,0 UV-I 0 W/m 16,3 C 17,0 C 12,9 km/h (3 Bft) 100,00 %
01.08.2016 00:16 18,1 C 89 % 1012,9 hPa 0,0 l/m 10,1 km/h (2 Bft) SW 229 0 min 0,000 mm 0,0 UV-I 0 W/m 16,3 C 16,5 C 16,1 km/h (3 Bft) 100,00 %
01.08.2016 00:18 18,1 C 89 % 1013,0 hPa 0,0 l/m 10,9 km/h (2 Bft) SW 221 0 min 0,000 mm 0,0 UV-I 0 W/m 16,3 C 16,2 C 14,5 km/h (3 Bft) 100,00 %
01.08.2016 00:20 18,1 C 89 % 1013,0 hPa 0,0 l/m 12,6 km/h (3 Bft) W-SW 243 0 min 0,000 mm 0,0 UV-I 0 W/m 16,3 C 15,6 C 22,5 km/h (4 Bft) 100,00 %
01.08.2016 00:22 18,2 C 89 % 1013,0 hPa 0,0 l/m 10,7 km/h (2 Bft) SW 236 0 min 0,000 mm 0,0 UV-I 0 W/m 16,4 C 16,4 C 16,1 km/h (3 Bft) 100,00 %
01.08.2016 00:24 18,2 C 89 % 1013,0 hPa 0,0 l/m 11,0 km/h (2 Bft) SW 236 0 min 0,000 mm 0,0 UV-I 0 W/m 16,4 C 16,3 C 20,9 km/h (4 Bft) 100,00 %
01.08.2016 00:26 18,2 C 89 % 1013,1 hPa 0,0 l/m 11,3 km/h (2 Bft) SW 227 0 min 0,000 mm 0,0 UV-I 0 W/m 16,4 C 16,2 C 16,1 km/h (3 Bft) 94,74 %
01.08.2016 00:28 18,2 C 88 % 1013,1 hPa 0,0 l/m 12,5 km/h (3 Bft) SW 228 0 min 0,000 mm 0,0 UV-I 0 W/m 16,2 C 15,8 C 17,7 km/h (3 Bft) 97,73 %
01.08.2016 00:30 18,2 C 89 % 1013,1 hPa 0,0 l/m 9,6 km/h (2 Bft) W 269 0 min 0,000 mm 0,0 UV-I 0 W/m 16,4 C 16,8 C 12,9 km/h (3 Bft) 98,21 %
01.08.2016 00:32 18,2 C 89 % 1013,0 hPa 0,0 l/m 8,7 km/h (2 Bft) SW 231 0 min 0,000 mm 0,0 UV-I 0 W/m 16,4 C 17,2 C 12,9 km/h (3 Bft) 96,00 %
01.08.2016 00:34 18,2 C 89 % 1013,0 hPa 0,0 l/m 10,2 km/h (2 Bft) W-SW 252 0 min 0,000 mm 0,0 UV-I 0 W/m 16,4 C 16,6 C 16,1 km/h (3 Bft) 97,56 %
01.08.2016 00:36 18,2 C 89 % 1013,1 hPa 0,0 l/m 12,3 km/h (3 Bft) W 267 0 min 0,000 mm 0,0 UV-I 0 W/m 16,4 C 15,9 C 17,7 km/h (3 Bft) 97,92 %
01.08.2016 00:38 18,2 C 89 % 1013,1 hPa 0,0 l/m 8,9 km/h (2 Bft) W-SW 252 0 min 0,000 mm 0,0 UV-I 0 W/m 16,4 C 17,1 C 12,9 km/h (3 Bft) 98,00 %
01.08.2016 00:40 18,2 C 89 % 1013,1 hPa 0,0 l/m 10,1 km/h (2 Bft) SW 221 0 min 0,000 mm 0,0 UV-I 0 W/m 16,4 C 16,6 C 16,1 km/h (3 Bft) 97,56 %
01.08.2016 00:42 18,2 C 89 % 1013,1 hPa 0,0 l/m 7,3 km/h (2 Bft) W-SW 256 0 min 0,000 mm 0,0 UV-I 0 W/m 16,4 C 17,8 C 11,3 km/h (2 Bft) 98,11 %
01.08.2016 00:44 18,2 C 89 % 1013,1 hPa 0,0 l/m 8,4 km/h (2 Bft) W 279 0 min 0,000 mm 0,0 UV-I 0 W/m 16,4 C 17,3 C 12,9 km/h (3 Bft) 95,74 %
01.08.2016 00:46 18,2 C 89 % 1013,1 hPa 0,0 l/m 7,9 km/h (2 Bft) W-SW 254 0 min 0,000 mm 0,0 UV-I 0 W/m 16,4 C 17,5 C 12,9 km/h (3 Bft) 97,56 %
01.08.2016 00:48 18,2 C 88 % 1013,1 hPa 0,0 l/m 9,9 km/h (2 Bft) SW 227 0 min 0,000 mm 0,0 UV-I 0 W/m 16,2 C 16,7 C 16,1 km/h (3 Bft) 95,45 %
01.08.2016 00:50 18,2 C 88 % 1013,1 hPa 0,0 l/m 8,9 km/h (2 Bft) SW 224 0 min 0,000 mm 0,0 UV-I 0 W/m 16,2 C 17,1 C 12,9 km/h (3 Bft) 97,87 %
01.08.2016 00:52 18,2 C 88 % 1013,1 hPa 0,0 l/m 9,8 km/h (2 Bft) S-SW 206 0 min 0,000 mm 0,0 UV-I 0 W/m 16,2 C 16,7 C 14,5 km/h (3 Bft) 96,43 %
01.08.2016 00:54 18,2 C 88 % 1013,1 hPa 0,0 l/m 8,5 km/h (2 Bft) W-SW 246 0 min 0,000 mm 0,0 UV-I 0 W/m 16,2 C 17,2 C 12,9 km/h (3 Bft) 97,87 %
01.08.2016 00:56 18,2 C 88 % 1013,0 hPa 0,0 l/m 7,4 km/h (2 Bft) W-SW 244 0 min 0,000 mm 0,0 UV-I 0 W/m 16,2 C 17,7 C 12,9 km/h (3 Bft) 97,87 %
01.08.2016 00:58 18,2 C 88 % 1013,0 hPa 0,0 l/m 8,9 km/h (2 Bft) SW 220 0 min 0,000 mm 0,0 UV-I 0 W/m 16,2 C 17,1 C 14,5 km/h (3 Bft) 97,44 %
01.08.2016 01:00 18,2 C 88 % 1013,1 hPa 0,0 l/m 8,5 km/h (2 Bft) W-SW 253 0 min 0,025 mm 0,0 UV-I 0 W/m 16,2 C 17,2 C 12,9 km/h (3 Bft) 100,00 %
01.08.2016 01:01 18,2 C 88 % 1013,1 hPa 0,0 l/m 6,8 km/h (2 Bft) SW 228 0 min 0,000 mm 0,0 UV-I 0 W/m 16,2 C 18,0 C 9,7 km/h (2 Bft) 98,31 %
01.08.2016 01:04 18,2 C 89 % 1013,1 hPa 0,0 l/m 6,7 km/h (2 Bft) S-SW 205 0 min 0,000 mm 0,0 UV-I 0 W/m 16,4 C 18,1 C 9,7 km/h (2 Bft) 100,00 %
01.08.2016 01:06 18,1 C 89 % 1013,0 hPa 0,0 l/m 8,1 km/h (2 Bft) SW 216 0 min 0,000 mm 0,0 UV-I 0 W/m 16,3 C 17,3 C 12,9 km/h (3 Bft) 97,87 %
01.08.2016 01:08 18,1 C 89 % 1013,0 hPa 0,0 l/m 7,1 km/h (2 Bft) W-SW 240 0 min 0,000 mm 0,0 UV-I 0 W/m 16,3 C 17,8 C 11,3 km/h (2 Bft) 98,00 %
01.08.2016 01:10 18,1 C 89 % 1013,0 hPa 0,0 l/m 9,0 km/h (2 Bft) W-SW 242 0 min 0,000 mm 0,0 UV-I 0 W/m 16,3 C 16,9 C 12,9 km/h (3 Bft) 100,00 %
01.08.2016 01:12 18,1 C 89 % 1013,1 hPa 0,0 l/m 7,2 km/h (2 Bft) SW 227 0 min 0,000 mm 0,0 UV-I 0 W/m 16,3 C 17,7 C 11,3 km/h (2 Bft) 100,00 %
01.08.2016 01:14 18,1 C 89 % 1013,1 hPa 0,0 l/m 7,7 km/h (2 Bft) W-SW 240 0 min 0,000 mm 0,0 UV-I 0 W/m 16,3 C 17,5 C 11,3 km/h (2 Bft) 100,00 %
01.08.2016 01:16 18,0 C 89 % 1013,1 hPa 0,0 l/m 8,3 km/h (2 Bft) SW 219 0 min 0,000 mm 0,0 UV-I 0 W/m 16,2 C 17,1 C 12,9 km/h (3 Bft) 100,00 %
01.08.2016 01:18 18,0 C 89 % 1013,1 hPa 0,0 l/m 7,2 km/h (2 Bft) W-SW 244 0 min 0,000 mm 0,0 UV-I 0 W/m 16,2 C 17,6 C 9,7 km/h (2 Bft) 100,00 %
01.08.2016 01:20 18,0 C 89 % 1013,1 hPa 0,0 l/m 8,4 km/h (2 Bft) SW 234 0 min 0,000 mm 0,0 UV-I 0 W/m 16,2 C 17,1 C 11,3 km/h (2 Bft) 100,00 %
01.08.2016 01:22 18,0 C 89 % 1013,2 hPa 0,0 l/m 8,3 km/h (2 Bft) SW 226 0 min 0,000 mm 0,0 UV-I 0 W/m 16,2 C 17,1 C 11,3 km/h (2 Bft) 100,00 %
01.08.2016 01:24 18,0 C 89 % 1013,2 hPa 0,0 l/m 7,1 km/h (2 Bft) SW 217 0 min 0,000 mm 0,0 UV-I 0 W/m 16,2 C 17,7 C 11,3 km/h (2 Bft) 100,00 %
01.08.2016 01:26 18,0 C 89 % 1013,2 hPa 0,0 l/m 6,8 km/h (2 Bft) SW 229 0 min 0,000 mm 0,0 UV-I 0 W/m 16,2 C 17,8 C 11,3 km/h (2 Bft) 100,00 %
01.08.2016 01:28 18,0 C 89 % 1013,2 hPa 0,0 l/m 6,3 km/h (2 Bft) SW 220 0 min 0,000 mm 0,0 UV-I 0 W/m 16,2 C 18,0 C 11,3 km/h (2 Bft) 100,00 %
01.08.2016 01:30 18,0 C 89 % 1013,2 hPa 0,0 l/m 5,1 km/h (1 Bft) W-SW 240 0 min 0,000 mm 0,0 UV-I 0 W/m 16,2 C 18,0 C 8,0 km/h (2 Bft) 100,00 %
01.08.2016 01:32 17,9 C 89 % 1013,2 hPa 0,0 l/m 6,5 km/h (2 Bft) SW 225 0 min 0,000 mm 0,0 UV-I 0 W/m 16,1 C 17,9 C 12,9 km/h (3 Bft) 100,00 %
01.08.2016 01:34 17,9 C 89 % 1013,3 hPa 0,0 l/m 6,8 km/h (2 Bft) W-SW 238 0 min 0,000 mm 0,0 UV-I 0 W/m 16,1 C 17,7 C 9,7 km/h (2 Bft) 98,00 %
01.08.2016 01:36 17,9 C 90 % 1013,2 hPa 0,0 l/m 5,4 km/h (1 Bft) SW 233 0 min 0,000 mm 0,0 UV-I 0 W/m 16,2 C 17,9 C 6,4 km/h (2 Bft) 100,00 %
01.08.2016 01:38 17,9 C 90 % 1013,3 hPa 0,0 l/m 6,0 km/h (2 Bft) W-SW 247 0 min 0,000 mm 0,0 UV-I 0 W/m 16,2 C 17,9 C 9,7 km/h (2 Bft) 100,00 %
01.08.2016 01:40 17,9 C 90 % 1013,3 hPa 0,0 l/m 5,7 km/h (1 Bft) W-SW 246 0 min 0,000 mm 0,0 UV-I 0 W/m 16,2 C 17,9 C 8,0 km/h (2 Bft) 95,12 %
01.08.2016 01:42 17,9 C 90 % 1013,3 hPa 0,0 l/m 8,0 km/h (2 Bft) W 271 0 min 0,000 mm 0,0 UV-I 0 W/m 16,2 C 17,1 C 14,5 km/h (3 Bft) 100,00 %
01.08.2016 01:44 17,9 C 90 % 1013,3 hPa 0,0 l/m 9,6 km/h (2 Bft) W-SW 250 0 min 0,000 mm 0,0 UV-I 0 W/m 16,2 C 16,5 C 12,9 km/h (3 Bft) 100,00 %
01.08.2016 01:46 17,9 C 90 % 1013,3 hPa 0,0 l/m 10,7 km/h (2 Bft) W-SW 258 0 min 0,000 mm 0,0 UV-I 0 W/m 16,2 C 16,1 C 14,5 km/h (3 Bft) 97,73 %
01.08.2016 01:48 17,9 C 90 % 1013,2 hPa 0,0 l/m 9,1 km/h (2 Bft) W-SW 258 0 min 0,000 mm 0,0 UV-I 0 W/m 16,2 C 16,7 C 12,9 km/h (3 Bft) 100,00 %
01.08.2016 01:50 18,0 C 90 % 1013,3 hPa 0,0 l/m 6,7 km/h (2 Bft) W-SW 251 0 min 0,000 mm 0,0 UV-I 0 W/m 16,3 C 17,9 C 9,7 km/h (2 Bft) 100,00 %
01.08.2016 01:52 18,0 C 90 % 1013,3 hPa 0,0 l/m 7,6 km/h (2 Bft) W-SW 251 0 min 0,000 mm 0,0 UV-I 0 W/m 16,3 C 17,4 C 12,9 km/h (3 Bft) 100,00 %
01.08.2016 01:54 18,1 C 90 % 1013,3 hPa 0,0 l/m 7,7 km/h (2 Bft) W-SW 248 0 min 0,000 mm 0,0 UV-I 0 W/m 16,4 C 17,5 C 12,9 km/h (3 Bft) 100,00 %
01.08.2016 01:56 18,1 C 90 % 1013,3 hPa 0,0 l/m 8,2 km/h (2 Bft) W-SW 252 0 min 0,000 mm 0,0 UV-I 0 W/m 16,4 C 17,3 C 12,9 km/h (3 Bft) 98,11 %
01.08.2016 01:58 18,1 C 90 % 1013,2 hPa 0,0 l/m 6,0 km/h (2 Bft) SW 217 0 min 0,000 mm 0,0 UV-I 0 W/m 16,4 C 18,1 C 9,7 km/h (2 Bft) 100,00 %
01.08.2016 02:00 18,2 C 90 % 1013,3 hPa 0,0 l/m 5,0 km/h (1 Bft) W-SW 248 0 min 0,026 mm 0,0 UV-I 0 W/m 16,5 C 18,2 C 8,0 km/h (2 Bft) 100,00 %
01.08.2016 02:02 18,2 C 90 % 1013,2 hPa 0,0 l/m 5,4 km/h (1 Bft) W-SW 252 0 min 0,000 mm 0,0 UV-I 0 W/m 16,5 C 18,2 C 11,3 km/h (2 Bft) 98,00 %
01.08.2016 02:04 18,2 C 90 % 1013,3 hPa 0,0 l/m 6,9 km/h (2 Bft) SW 221 0 min 0,000 mm 0,0 UV-I 0 W/m 16,5 C 18,0 C 9,7 km/h (2 Bft) 100,00 %
01.08.2016 02:06 18,2 C 90 % 1013,3 hPa 0,0 l/m 5,7 km/h (1 Bft) W 259 0 min 0,000 mm 0,0 UV-I 0 W/m 16,5 C 18,2 C 11,3 km/h (2 Bft) 100,00 %
01.08.2016 02:08 18,3 C 90 % 1013,3 hPa 0,0 l/m 4,9 km/h (1 Bft) W-SW 256 0 min 0,000 mm 0,0 UV-I 0 W/m 16,6 C 18,3 C 6,4 km/h (2 Bft) 95,74 %
01.08.2016 02:10 18,3 C 90 % 1013,3 hPa 0,0 l/m 4,6 km/h (1 Bft) W 280 0 min 0,000 mm 0,0 UV-I 0 W/m 16,6 C 18,3 C 6,4 km/h (2 Bft) 100,00 %
01.08.2016 02:12 18,3 C 89 % 1013,3 hPa 0,0 l/m 4,5 km/h (1 Bft) SW 234 0 min 0,000 mm 0,0 UV-I 0 W/m 16,5 C 18,3 C 8,0 km/h (2 Bft) 100,00 %
01.08.2016 02:14 18,3 C 89 % 1013,5 hPa 0,0 l/m 5,8 km/h (2 Bft) SW 223 0 min 0,000 mm 0,0 UV-I 0 W/m 16,5 C 18,3 C 8,0 km/h (2 Bft) 100,00 %
01.08.2016 02:16 18,3 C 89 % 1013,4 hPa 0,0 l/m 4,9 km/h (1 Bft) SW 224 0 min 0,000 mm 0,0 UV-I 0 W/m 16,5 C 18,3 C 6,4 km/h (2 Bft) 100,00 %
01.08.2016 02:18 18,3 C 89 % 1013,4 hPa 0,0 l/m 6,0 km/h (2 Bft) SW 223 0 min 0,000 mm 0,0 UV-I 0 W/m 16,5 C 18,3 C 8,0 km/h (2 Bft) 98,00 %
01.08.2016 02:20 18,3 C 89 % 1013,5 hPa 0,0 l/m 6,3 km/h (2 Bft) W-SW 250 0 min 0,000 mm 0,0 UV-I 0 W/m 16,5 C 18,3 C 12,9 km/h (3 Bft) 100,00 %
01.08.2016 02:22 18,3 C 89 % 1013,5 hPa 0,0 l/m 5,5 km/h (1 Bft) SW 232 0 min 0,000 mm 0,0 UV-I 0 W/m 16,5 C 18,3 C 8,0 km/h (2 Bft) 100,00 %
01.08.2016 02:24 18,3 C 89 % 1013,6 hPa 0,0 l/m 8,6 km/h (2 Bft) W-SW 251 0 min 0,000 mm 0,0 UV-I 0 W/m 16,5 C 17,3 C 14,5 km/h (3 Bft) 100,00 %
01.08.2016 02:26 18,3 C 89 % 1013,6 hPa 0,0 l/m 8,7 km/h (2 Bft) W-SW 248 0 min 0,000 mm 0,0 UV-I 0 W/m 16,5 C 17,3 C 12,9 km/h (3 Bft) 97,56 %
01.08.2016 02:28 18,4 C 89 % 1013,6 hPa 0,0 l/m 7,2 km/h (2 Bft) W-SW 252 0 min 0,000 mm 0,0 UV-I 0 W/m 16,6 C 18,0 C 9,7 km/h (2 Bft) 98,21 %
01.08.2016 02:30 18,4 C 89 % 1013,7 hPa 0,0 l/m 7,2 km/h (2 Bft) W-SW 241 0 min 0,000 mm 0,0 UV-I 0 W/m 16,6 C 18,0 C 11,3 km/h (2 Bft) 97,56 %
01.08.2016 02:32 18,4 C 89 % 1013,6 hPa 0,0 l/m 8,5 km/h (2 Bft) W 260 0 min 0,000 mm 0,0 UV-I 0 W/m 16,6 C 17,5 C 16,1 km/h (3 Bft) 94,00 %
01.08.2016 02:34 18,4 C 89 % 1013,6 hPa 0,0 l/m 6,2 km/h (2 Bft) W-SW 249 0 min 0,000 mm 0,0 UV-I 0 W/m 16,6 C 18,4 C 11,3 km/h (2 Bft) 97,92 %
01.08.2016 02:36 18,4 C 89 % 1013,7 hPa 0,0 l/m 5,3 km/h (1 Bft) W 260 0 min 0,000 mm 0,0 UV-I 0 W/m 16,6 C 18,4 C 8,0 km/h (2 Bft) 94,29 %
01.08.2016 02:38 18,4 C 89 % 1013,7 hPa 0,0 l/m 9,3 km/h (2 Bft) SW 214 0 min 0,000 mm 0,0 UV-I 0 W/m 16,6 C 17,1 C 14,5 km/h (3 Bft) 98,31 %
01.08.2016 02:40 18,4 C 89 % 1013,8 hPa 0,0 l/m 7,2 km/h (2 Bft) W-SW 243 0 min 0,000 mm 0,0 UV-I 0 W/m 16,6 C 18,0 C 11,3 km/h (2 Bft) 97,37 %
01.08.2016 02:42 18,4 C 88 % 1013,8 hPa 0,0 l/m 9,6 km/h (2 Bft) W-SW 247 0 min 0,000 mm 0,0 UV-I 0 W/m 16,4 C 17,0 C 16,1 km/h (3 Bft) 98,11 %
01.08.2016 02:44 18,4 C 89 % 1013,9 hPa 0,0 l/m 7,4 km/h (2 Bft) SW 234 0 min 0,000 mm 0,0 UV-I 0 W/m 16,6 C 17,9 C 14,5 km/h (3 Bft) 95,45 %
01.08.2016 02:46 18,4 C 89 % 1013,9 hPa 0,0 l/m 7,1 km/h (2 Bft) W-SW 250 0 min 0,000 mm 0,0 UV-I 0 W/m 16,6 C 18,1 C 11,3 km/h (2 Bft) 98,00 %
01.08.2016 02:48 18,4 C 89 % 1013,9 hPa 0,0 l/m 6,7 km/h (2 Bft) W-SW 247 0 min 0,000 mm 0,0 UV-I 0 W/m 16,6 C 18,3 C 11,3 km/h (2 Bft) 97,87 %
01.08.2016 02:50 18,4 C 89 % 1013,9 hPa 0,0 l/m 6,3 km/h (2 Bft) SW 226 0 min 0,000 mm 0,0 UV-I 0 W/m 16,6 C 18,4 C 8,0 km/h (2 Bft) 95,12 %
01.08.2016 02:52 18,4 C 88 % 1013,9 hPa 0,0 l/m 7,4 km/h (2 Bft) W-SW 252 0 min 0,000 mm 0,0 UV-I 0 W/m 16,4 C 17,9 C 11,3 km/h (2 Bft) 96,23 %
01.08.2016 02:54 18,3 C 88 % 1013,9 hPa 0,0 l/m 6,5 km/h (2 Bft) W-SW 246 0 min 0,000 mm 0,0 UV-I 0 W/m 16,3 C 18,3 C 8,0 km/h (2 Bft) 95,12 %
01.08.2016 02:56 18,3 C 89 % 1013,9 hPa 0,0 l/m 6,2 km/h (2 Bft) W-SW 255 0 min 0,000 mm 0,0 UV-I 0 W/m 16,5 C 18,3 C 8,0 km/h (2 Bft) 98,11 %
01.08.2016 02:58 18,3 C 88 % 1014,0 hPa 0,0 l/m 9,0 km/h (2 Bft) W-SW 257 0 min 0,000 mm 0,0 UV-I 0 W/m 16,3 C 17,1 C 12,9 km/h (3 Bft) 100,00 %
01.08.2016 03:00 18,3 C 88 % 1013,9 hPa 0,0 l/m 6,6 km/h (2 Bft) W-SW 249 0 min 0,025 mm 0,0 UV-I 0 W/m 16,3 C 18,2 C 12,9 km/h (3 Bft) 97,56 %
01.08.2016 03:02 18,3 C 88 % 1013,9 hPa 0,0 l/m 6,8 km/h (2 Bft) W 265 0 min 0,000 mm 0,0 UV-I 0 W/m 16,3 C 18,1 C 11,3 km/h (2 Bft) 98,00 %
01.08.2016 03:04 18,3 C 88 % 1013,9 hPa 0,0 l/m 8,9 km/h (2 Bft) W-SW 249 0 min 0,000 mm 0,0 UV-I 0 W/m 16,3 C 17,2 C 14,5 km/h (3 Bft) 100,00 %
01.08.2016 03:06 18,3 C 88 % 1014,0 hPa 0,0 l/m 8,0 km/h (2 Bft) W-SW 238 0 min 0,000 mm 0,0 UV-I 0 W/m 16,3 C 17,6 C 14,5 km/h (3 Bft) 100,00 %
01.08.2016 03:08 18,3 C 88 % 1014,1 hPa 0,0 l/m 7,2 km/h (2 Bft) W-SW 250 0 min 0,000 mm 0,0 UV-I 0 W/m 16,3 C 17,9 C 14,5 km/h (3 Bft) 100,00 %
01.08.2016 03:10 18,3 C 88 % 1014,1 hPa 0,0 l/m 8,3 km/h (2 Bft) SW 222 0 min 0,000 mm 0,0 UV-I 0 W/m 16,3 C 17,4 C 14,5 km/h (3 Bft) 98,00 %
01.08.2016 03:12 18,3 C 88 % 1014,1 hPa 0,0 l/m 8,2 km/h (2 Bft) W-SW 248 0 min 0,000 mm 0,0 UV-I 0 W/m 16,3 C 17,5 C 12,9 km/h (3 Bft) 100,00 %
01.08.2016 03:14 18,3 C 88 % 1014,0 hPa 0,0 l/m 9,2 km/h (2 Bft) W 267 0 min 0,000 mm 0,0 UV-I 0 W/m 16,3 C 17,1 C 16,1 km/h (3 Bft) 100,00 %
01.08.2016 03:16 18,3 C 88 % 1014,0 hPa 0,0 l/m 8,3 km/h (2 Bft) W 267 0 min 0,000 mm 0,0 UV-I 0 W/m 16,3 C 17,4 C 12,9 km/h (3 Bft) 100,00 %
01.08.2016 03:18 18,3 C 88 % 1014,0 hPa 0,0 l/m 6,6 km/h (2 Bft) W-SW 255 0 min 0,000 mm 0,0 UV-I 0 W/m 16,3 C 18,2 C 11,3 km/h (2 Bft) 98,00 %
01.08.2016 03:20 18,3 C 87 % 1013,9 hPa 0,0 l/m 7,2 km/h (2 Bft) SW 236 0 min 0,000 mm 0,0 UV-I 0 W/m 16,1 C 17,9 C 12,9 km/h (3 Bft) 100,00 %
01.08.2016 03:22 18,3 C 88 % 1013,9 hPa 0,0 l/m 8,0 km/h (2 Bft) SW 234 0 min 0,000 mm 0,0 UV-I 0 W/m 16,3 C 17,6 C 12,9 km/h (3 Bft) 100,00 %
01.08.2016 03:24 18,3 C 87 % 1014,0 hPa 0,0 l/m 7,1 km/h (2 Bft) W-SW 252 0 min 0,000 mm 0,0 UV-I 0 W/m 16,1 C 18,0 C 12,9 km/h (3 Bft) 100,00 %
01.08.2016 03:26 18,3 C 87 % 1014,0 hPa 0,0 l/m 8,9 km/h (2 Bft) W-SW 242 0 min 0,000 mm 0,0 UV-I 0 W/m 16,1 C 17,2 C 12,9 km/h (3 Bft) 100,00 %
01.08.2016 03:28 18,3 C 88 % 1014,0 hPa 0,0 l/m 6,8 km/h (2 Bft) W-SW 240 0 min 0,000 mm 0,0 UV-I 0 W/m 16,3 C 18,1 C 12,9 km/h (3 Bft) 100,00 %
01.08.2016 03:30 18,3 C 88 % 1014,0 hPa 0,0 l/m 5,8 km/h (2 Bft) SW 227 0 min 0,000 mm 0,0 UV-I 0 W/m 16,3 C 18,3 C 11,3 km/h (2 Bft) 100,00 %
01.08.2016 03:32 18,2 C 88 % 1014,0 hPa 0,0 l/m 5,2 km/h (1 Bft) W-SW 246 0 min 0,000 mm 0,0 UV-I 0 W/m 16,2 C 18,2 C 8,0 km/h (2 Bft) 100,00 %
01.08.2016 03:34 18,2 C 88 % 1014,0 hPa 0,0 l/m 4,5 km/h (1 Bft) SW 224 0 min 0,000 mm 0,0 UV-I 0 W/m 16,2 C 18,2 C 6,4 km/h (2 Bft) 97,96 %
01.08.2016 03:36 18,2 C 88 % 1014,0 hPa 0,0 l/m 5,0 km/h (1 Bft) S-SW 203 0 min 0,000 mm 0,0 UV-I 0 W/m 16,2 C 18,2 C 8,0 km/h (2 Bft) 100,00 %
01.08.2016 03:38 18,1 C 88 % 1014,1 hPa 0,0 l/m 5,4 km/h (1 Bft) S-SW 207 0 min 0,000 mm 0,0 UV-I 0 W/m 16,1 C 18,1 C 8,0 km/h (2 Bft) 100,00 %
01.08.2016 03:40 18,1 C 88 % 1014,1 hPa 0,0 l/m 7,0 km/h (2 Bft) S 184 0 min 0,000 mm 0,0 UV-I 0 W/m 16,1 C 17,8 C 9,7 km/h (2 Bft) 100,00 %
01.08.2016 03:42 18,1 C 88 % 1014,1 hPa 0,0 l/m 7,0 km/h (2 Bft) S-SW 202 0 min 0,000 mm 0,0 UV-I 0 W/m 16,1 C 17,8 C 9,7 km/h (2 Bft) 100,00 %
01.08.2016 03:44 18,1 C 88 % 1014,0 hPa 0,0 l/m 6,0 km/h (2 Bft) S-SW 210 0 min 0,000 mm 0,0 UV-I 0 W/m 16,1 C 18,1 C 9,7 km/h (2 Bft) 100,00 %
01.08.2016 03:46 18,1 C 88 % 1014,0 hPa 0,0 l/m 5,6 km/h (1 Bft) SW 222 0 min 0,000 mm 0,0 UV-I 0 W/m 16,1 C 18,1 C 8,0 km/h (2 Bft) 100,00 %
01.08.2016 03:48 18,0 C 88 % 1014,0 hPa 0,0 l/m 5,1 km/h (1 Bft) S-SW 202 0 min 0,000 mm 0,0 UV-I 0 W/m 16,0 C 18,0 C 9,7 km/h (2 Bft) 100,00 %
01.08.2016 03:50 18,0 C 88 % 1014,1 hPa 0,0 l/m 4,6 km/h (1 Bft) W-SW 242 0 min 0,000 mm 0,0 UV-I 0 W/m 16,0 C 18,0 C 8,0 km/h (2 Bft) 100,00 %
01.08.2016 03:52 17,9 C 88 % 1014,0 hPa 0,0 l/m 6,0 km/h (2 Bft) SW 229 0 min 0,000 mm 0,0 UV-I 0 W/m 15,9 C 17,9 C 11,3 km/h (2 Bft) 98,08 %
01.08.2016 03:54 17,9 C 88 % 1014,0 hPa 0,0 l/m 7,2 km/h (2 Bft) SW 228 0 min 0,000 mm 0,0 UV-I 0 W/m 15,9 C 17,5 C 9,7 km/h (2 Bft) 100,00 %
01.08.2016 03:56 17,9 C 88 % 1014,0 hPa 0,0 l/m 6,4 km/h (2 Bft) W-SW 248 0 min 0,000 mm 0,0 UV-I 0 W/m 15,9 C 17,9 C 8,0 km/h (2 Bft) 98,11 %
01.08.2016 03:58 17,9 C 89 % 1014,0 hPa 0,0 l/m 5,7 km/h (1 Bft) W-SW 249 0 min 0,000 mm 0,0 UV-I 0 W/m 16,1 C 17,9 C 8,0 km/h (2 Bft) 100,00 %
01.08.2016 04:00 17,9 C 89 % 1014,0 hPa 0,0 l/m 7,0 km/h (2 Bft) SW 232 0 min 0,026 mm 0,0 UV-I 0 W/m 16,1 C 17,6 C 12,9 km/h (3 Bft) 95,74 %
01.08.2016 04:02 17,8 C 89 % 1014,0 hPa 0,0 l/m 5,8 km/h (2 Bft) SW 236 0 min 0,000 mm 0,0 UV-I 0 W/m 16,0 C 17,8 C 9,7 km/h (2 Bft) 100,00 %
01.08.2016 04:04 17,8 C 89 % 1014,0 hPa 0,0 l/m 6,6 km/h (2 Bft) W-SW 247 0 min 0,000 mm 0,0 UV-I 0 W/m 16,0 C 17,7 C 11,3 km/h (2 Bft) 100,00 %
01.08.2016 04:06 17,8 C 89 % 1014,0 hPa 0,0 l/m 7,6 km/h (2 Bft) W-SW 254 0 min 0,000 mm 0,0 UV-I 0 W/m 16,0 C 17,2 C 12,9 km/h (3 Bft) 96,43 %
01.08.2016 04:08 17,8 C 89 % 1014,0 hPa 0,0 l/m 8,9 km/h (2 Bft) W-SW 255 0 min 0,000 mm 0,0 UV-I 0 W/m 16,0 C 16,7 C 12,9 km/h (3 Bft) 100,00 %
01.08.2016 04:10 17,8 C 88 % 1014,0 hPa 0,0 l/m 7,3 km/h (2 Bft) SW 236 0 min 0,000 mm 0,0 UV-I 0 W/m 15,8 C 17,4 C 11,3 km/h (2 Bft) 100,00 %
01.08.2016 04:12 17,8 C 88 % 1014,0 hPa 0,0 l/m 9,3 km/h (2 Bft) W-SW 246 0 min 0,000 mm 0,0 UV-I 0 W/m 15,8 C 16,5 C 14,5 km/h (3 Bft) 100,00 %
01.08.2016 04:14 17,8 C 88 % 1014,0 hPa 0,0 l/m 9,6 km/h (2 Bft) W 261 0 min 0,000 mm 0,0 UV-I 0 W/m 15,8 C 16,4 C 14,5 km/h (3 Bft) 98,00 %
01.08.2016 04:16 17,8 C 88 % 1014,0 hPa 0,0 l/m 10,6 km/h (2 Bft) W 270 0 min 0,000 mm 0,0 UV-I 0 W/m 15,8 C 16,0 C 16,1 km/h (3 Bft) 100,00 %
01.08.2016 04:18 17,8 C 88 % 1014,1 hPa 0,0 l/m 12,3 km/h (3 Bft) W-SW 247 0 min 0,000 mm 0,0 UV-I 0 W/m 15,8 C 15,4 C 16,1 km/h (3 Bft) 100,00 %
01.08.2016 04:20 17,8 C 88 % 1014,1 hPa 0,0 l/m 10,7 km/h (2 Bft) W-SW 257 0 min 0,000 mm 0,0 UV-I 0 W/m 15,8 C 15,9 C 14,5 km/h (3 Bft) 100,00 %
01.08.2016 04:22 17,8 C 88 % 1014,1 hPa 0,0 l/m 10,7 km/h (2 Bft) W-SW 254 0 min 0,000 mm 0,0 UV-I 0 W/m 15,8 C 15,9 C 16,1 km/h (3 Bft) 100,00 %
01.08.2016 04:24 17,8 C 88 % 1014,1 hPa 0,0 l/m 7,8 km/h (2 Bft) W-SW 250 0 min 0,000 mm 0,0 UV-I 0 W/m 15,8 C 17,1 C 12,9 km/h (3 Bft) 98,11 %
01.08.2016 04:26 17,8 C 88 % 1014,1 hPa 0,0 l/m 9,1 km/h (2 Bft) W-SW 246 0 min 0,000 mm 0,0 UV-I 0 W/m 15,8 C 16,6 C 14,5 km/h (3 Bft) 97,87 %
01.08.2016 04:28 17,8 C 88 % 1014,1 hPa 0,0 l/m 8,8 km/h (2 Bft) W 261 0 min 0,000 mm 0,0 UV-I 0 W/m 15,8 C 16,7 C 14,5 km/h (3 Bft) 97,56 %
01.08.2016 04:30 17,9 C 87 % 1014,1 hPa 0,0 l/m 10,3 km/h (2 Bft) W-SW 243 0 min 0,000 mm 0,0 UV-I 0 W/m 15,7 C 16,2 C 17,7 km/h (3 Bft) 97,92 %
01.08.2016 04:32 17,9 C 87 % 1014,1 hPa 0,0 l/m 8,4 km/h (2 Bft) W-SW 251 0 min 0,000 mm 0,0 UV-I 0 W/m 15,7 C 17,0 C 12,9 km/h (3 Bft) 98,00 %
01.08.2016 04:34 17,9 C 87 % 1014,1 hPa 0,0 l/m 9,5 km/h (2 Bft) W-SW 252 0 min 0,000 mm 0,0 UV-I 0 W/m 15,7 C 16,5 C 12,9 km/h (3 Bft) 95,74 %
01.08.2016 04:36 18,0 C 87 % 1014,1 hPa 0,0 l/m 10,2 km/h (2 Bft) W-SW 254 0 min 0,000 mm 0,0 UV-I 0 W/m 15,8 C 16,4 C 16,1 km/h (3 Bft) 97,56 %
01.08.2016 04:38 18,0 C 87 % 1014,1 hPa 0,0 l/m 7,3 km/h (2 Bft) W-SW 245 0 min 0,000 mm 0,0 UV-I 0 W/m 15,8 C 17,6 C 12,9 km/h (3 Bft) 97,56 %
01.08.2016 04:40 18,1 C 87 % 1014,2 hPa 0,0 l/m 7,8 km/h (2 Bft) SW 234 0 min 0,000 mm 0,0 UV-I 0 W/m 15,9 C 17,4 C 14,5 km/h (3 Bft) 98,31 %
01.08.2016 04:42 18,1 C 87 % 1014,2 hPa 0,0 l/m 8,1 km/h (2 Bft) W-SW 247 0 min 0,000 mm 0,0 UV-I 0 W/m 15,9 C 17,3 C 12,9 km/h (3 Bft) 97,56 %
01.08.2016 04:44 18,1 C 87 % 1014,3 hPa 0,0 l/m 7,2 km/h (2 Bft) SW 219 0 min 0,000 mm 0,0 UV-I 0 W/m 15,9 C 17,7 C 12,9 km/h (3 Bft) 97,87 %
01.08.2016 04:46 18,1 C 87 % 1014,3 hPa 0,0 l/m 8,3 km/h (2 Bft) SW 225 0 min 0,000 mm 0,0 UV-I 0 W/m 15,9 C 17,2 C 14,5 km/h (3 Bft) 97,87 %
01.08.2016 04:48 18,1 C 87 % 1014,3 hPa 0,0 l/m 8,8 km/h (2 Bft) W-SW 244 0 min 0,000 mm 0,0 UV-I 0 W/m 15,9 C 17,0 C 12,9 km/h (3 Bft) 98,11 %
01.08.2016 04:50 18,1 C 87 % 1014,3 hPa 0,0 l/m 9,8 km/h (2 Bft) S-SW 213 0 min 0,000 mm 0,0 UV-I 0 W/m 15,9 C 16,6 C 17,7 km/h (3 Bft) 97,56 %
01.08.2016 04:52 18,1 C 87 % 1014,4 hPa 0,0 l/m 7,4 km/h (2 Bft) SW 236 0 min 0,000 mm 0,0 UV-I 0 W/m 15,9 C 17,6 C 11,3 km/h (2 Bft) 96,23 %
01.08.2016 04:54 18,1 C 87 % 1014,4 hPa 0,0 l/m 6,9 km/h (2 Bft) W-SW 246 0 min 0,000 mm 0,0 UV-I 0 W/m 15,9 C 17,9 C 11,3 km/h (2 Bft) 97,56 %
01.08.2016 04:56 18,1 C 87 % 1014,3 hPa 0,0 l/m 6,4 km/h (2 Bft) SW 217 0 min 0,000 mm 0,0 UV-I 0 W/m 15,9 C 18,1 C 9,7 km/h (2 Bft) 98,00 %
01.08.2016 04:58 18,0 C 87 % 1014,4 hPa 0,0 l/m 7,9 km/h (2 Bft) SW 230 0 min 0,000 mm 0,0 UV-I 0 W/m 15,8 C 17,3 C 16,1 km/h (3 Bft) 96,00 %
01.08.2016 05:00 18,0 C 87 % 1014,4 hPa 0,0 l/m 6,3 km/h (2 Bft) SW 214 0 min 0,025 mm 0,0 UV-I 0 W/m 15,8 C 18,0 C 12,9 km/h (3 Bft) 100,00 %
01.08.2016 05:02 17,9 C 87 % 1014,4 hPa 0,0 l/m 6,2 km/h (2 Bft) W-SW 254 0 min 0,000 mm 0,0 UV-I 0 W/m 15,7 C 17,9 C 9,7 km/h (2 Bft) 100,00 %
01.08.2016 05:04 18,0 C 87 % 1014,4 hPa 0,0 l/m 5,0 km/h (1 Bft) SW 227 0 min 0,000 mm 0,0 UV-I 0 W/m 15,8 C 18,0 C 6,4 km/h (2 Bft) 98,11 %
01.08.2016 05:06 17,9 C 88 % 1014,4 hPa 0,0 l/m 6,2 km/h (2 Bft) W-SW 238 0 min 0,000 mm 0,0 UV-I 0 W/m 15,9 C 17,9 C 8,0 km/h (2 Bft) 100,00 %
01.08.2016 05:08 17,9 C 88 % 1014,4 hPa 0,0 l/m 5,8 km/h (2 Bft) SW 221 0 min 0,000 mm 0,0 UV-I 0 W/m 15,9 C 17,9 C 8,0 km/h (2 Bft) 96,36 %
01.08.2016 05:10 17,9 C 88 % 1014,4 hPa 0,0 l/m 5,7 km/h (1 Bft) W-SW 251 0 min 0,000 mm 0,0 UV-I 0 W/m 15,9 C 17,9 C 9,7 km/h (2 Bft) 100,00 %
01.08.2016 05:12 17,9 C 88 % 1014,4 hPa 0,0 l/m 6,7 km/h (2 Bft) S-SW 212 0 min 0,000 mm 0,0 UV-I 0 W/m 15,9 C 17,8 C 9,7 km/h (2 Bft) 100,00 %
01.08.2016 05:14 17,9 C 88 % 1014,5 hPa 0,0 l/m 6,2 km/h (2 Bft) SW 224 0 min 0,000 mm 0,0 UV-I 0 W/m 15,9 C 17,9 C 9,7 km/h (2 Bft) 100,00 %
01.08.2016 05:16 17,9 C 88 % 1014,5 hPa 0,0 l/m 6,2 km/h (2 Bft) W-SW 249 0 min 0,000 mm 0,0 UV-I 0 W/m 15,9 C 17,9 C 9,7 km/h (2 Bft) 100,00 %
01.08.2016 05:18 17,8 C 88 % 1014,5 hPa 0,0 l/m 5,8 km/h (2 Bft) W-SW 241 0 min 0,000 mm 0,0 UV-I 0 W/m 15,8 C 17,8 C 11,3 km/h (2 Bft) 100,00 %
01.08.2016 05:20 17,8 C 89 % 1014,5 hPa 0,0 l/m 5,9 km/h (2 Bft) W-SW 251 0 min 0,000 mm 0,0 UV-I 0 W/m 16,0 C 17,8 C 11,3 km/h (2 Bft) 100,00 %
01.08.2016 05:22 17,8 C 88 % 1014,5 hPa 0,0 l/m 8,3 km/h (2 Bft) W-SW 246 0 min 0,000 mm 0,0 UV-I 0 W/m 15,8 C 16,9 C 14,5 km/h (3 Bft) 98,00 %
01.08.2016 05:24 17,8 C 89 % 1014,5 hPa 0,0 l/m 5,6 km/h (1 Bft) W-SW 244 0 min 0,000 mm 0,0 UV-I 0 W/m 16,0 C 17,8 C 8,0 km/h (2 Bft) 100,00 %
01.08.2016 05:26 17,8 C 89 % 1014,6 hPa 0,0 l/m 6,5 km/h (2 Bft) W-SW 252 0 min 0,000 mm 0,0 UV-I 0 W/m 16,0 C 17,8 C 11,3 km/h (2 Bft) 100,00 %
01.08.2016 05:28 17,8 C 89 % 1014,6 hPa 0,0 l/m 7,9 km/h (2 Bft) W-SW 252 0 min 0,000 mm 0,0 UV-I 0 W/m 16,0 C 17,1 C 12,9 km/h (3 Bft) 100,00 %
01.08.2016 05:30 17,8 C 88 % 1014,6 hPa 0,0 l/m 8,8 km/h (2 Bft) W-SW 257 0 min 0,000 mm 0,0 UV-I 0 W/m 15,8 C 16,7 C 12,9 km/h (3 Bft) 100,00 %
01.08.2016 05:32 17,8 C 88 % 1014,6 hPa 0,0 l/m 10,0 km/h (2 Bft) W-SW 238 0 min 0,000 mm 0,0 UV-I 0 W/m 15,8 C 16,2 C 20,9 km/h (4 Bft) 100,00 %
01.08.2016 05:34 17,8 C 88 % 1014,7 hPa 0,0 l/m 11,7 km/h (2 Bft) W 261 0 min 0,000 mm 0,0 UV-I 0 W/m 15,8 C 15,6 C 16,1 km/h (3 Bft) 100,00 %
01.08.2016 05:36 17,8 C 88 % 1014,7 hPa 0,0 l/m 8,9 km/h (2 Bft) SW 231 0 min 0,000 mm 0,0 UV-I 0 W/m 15,8 C 16,7 C 14,5 km/h (3 Bft) 100,00 %
01.08.2016 05:38 17,8 C 88 % 1014,7 hPa 0,0 l/m 7,7 km/h (2 Bft) SW 231 0 min 0,000 mm 0,0 UV-I 0 W/m 15,8 C 17,2 C 12,9 km/h (3 Bft) 100,00 %
01.08.2016 05:40 17,8 C 88 % 1014,8 hPa 0,0 l/m 10,0 km/h (2 Bft) W-SW 257 0 min 0,000 mm 0,0 UV-I 0 W/m 15,8 C 16,2 C 16,1 km/h (3 Bft) 100,00 %
01.08.2016 05:42 17,8 C 88 % 1014,8 hPa 0,0 l/m 10,4 km/h (2 Bft) W-SW 258 0 min 0,000 mm 0,0 UV-I 0 W/m 15,8 C 16,1 C 16,1 km/h (3 Bft) 100,00 %
01.08.2016 05:44 17,8 C 87 % 1014,8 hPa 0,0 l/m 10,7 km/h (2 Bft) W-SW 254 0 min 0,000 mm 0,0 UV-I 0 W/m 15,6 C 15,9 C 16,1 km/h (3 Bft) 95,74 %
01.08.2016 05:46 17,8 C 87 % 1014,8 hPa 0,0 l/m 11,7 km/h (2 Bft) W-SW 240 0 min 0,000 mm 0,0 UV-I 4 W/m 15,6 C 15,6 C 17,7 km/h (3 Bft) 100,00 %
01.08.2016 05:48 17,8 C 87 % 1014,9 hPa 0,0 l/m 9,8 km/h (2 Bft) W-SW 252 0 min 0,000 mm 0,0 UV-I 5 W/m 15,6 C 16,3 C 14,5 km/h (3 Bft) 100,00 %
01.08.2016 05:50 17,8 C 87 % 1014,9 hPa 0,0 l/m 7,4 km/h (2 Bft) W-SW 250 0 min 0,000 mm 0,0 UV-I 7 W/m 15,6 C 17,3 C 12,9 km/h (3 Bft) 98,18 %
01.08.2016 05:52 17,8 C 87 % 1014,9 hPa 0,0 l/m 12,3 km/h (3 Bft) W 268 0 min 0,000 mm 0,0 UV-I 7 W/m 15,6 C 15,4 C 16,1 km/h (3 Bft) 97,62 %
01.08.2016 05:54 17,8 C 87 % 1014,9 hPa 0,0 l/m 13,2 km/h (3 Bft) W-SW 245 0 min 0,000 mm 0,0 UV-I 7 W/m 15,6 C 15,1 C 19,3 km/h (3 Bft) 100,00 %
01.08.2016 05:56 17,8 C 87 % 1015,0 hPa 0,0 l/m 8,3 km/h (2 Bft) W-SW 254 0 min 0,000 mm 0,0 UV-I 7 W/m 15,6 C 16,9 C 12,9 km/h (3 Bft) 100,00 %
01.08.2016 05:58 17,8 C 87 % 1015,0 hPa 0,0 l/m 10,4 km/h (2 Bft) W-SW 246 0 min 0,000 mm 0,0 UV-I 6 W/m 15,6 C 16,1 C 16,1 km/h (3 Bft) 100,00 %
01.08.2016 06:00 17,8 C 87 % 1015,0 hPa 0,0 l/m 9,6 km/h (2 Bft) W-SW 237 0 min 0,025 mm 0,0 UV-I 5 W/m 15,6 C 16,4 C 16,1 km/h (3 Bft) 97,87 %
01.08.2016 06:02 17,8 C 87 % 1015,0 hPa 0,0 l/m 8,7 km/h (2 Bft) W-SW 252 0 min 0,000 mm 0,0 UV-I 5 W/m 15,6 C 16,7 C 14,5 km/h (3 Bft) 98,00 %
01.08.2016 06:04 17,8 C 87 % 1015,0 hPa 0,0 l/m 6,3 km/h (2 Bft) W 279 0 min 0,000 mm 0,0 UV-I 5 W/m 15,6 C 17,8 C 11,3 km/h (2 Bft) 100,00 %
01.08.2016 06:06 17,8 C 87 % 1015,0 hPa 0,0 l/m 6,2 km/h (2 Bft) W 259 0 min 0,000 mm 0,0 UV-I 7 W/m 15,6 C 17,8 C 9,7 km/h (2 Bft) 100,00 %
01.08.2016 06:08 17,8 C 87 % 1015,0 hPa 0,0 l/m 8,6 km/h (2 Bft) W 272 0 min 0,000 mm 0,0 UV-I 8 W/m 15,6 C 16,8 C 12,9 km/h (3 Bft) 100,00 %
01.08.2016 06:10 17,8 C 88 % 1015,0 hPa 0,0 l/m 5,4 km/h (1 Bft) W-SW 239 0 min 0,000 mm 0,0 UV-I 10 W/m 15,8 C 17,8 C 8,0 km/h (2 Bft) 100,00 %
01.08.2016 06:12 17,8 C 87 % 1015,1 hPa 0,0 l/m 9,5 km/h (2 Bft) W-SW 252 0 min 0,000 mm 0,0 UV-I 12 W/m 15,6 C 16,4 C 14,5 km/h (3 Bft) 100,00 %
01.08.2016 06:14 17,8 C 87 % 1015,1 hPa 0,0 l/m 10,2 km/h (2 Bft) W-SW 257 0 min 0,000 mm 0,0 UV-I 13 W/m 15,6 C 16,1 C 16,1 km/h (3 Bft) 100,00 %
01.08.2016 06:16 17,8 C 87 % 1015,0 hPa 0,0 l/m 8,0 km/h (2 Bft) W-SW 252 0 min 0,000 mm 0,0 UV-I 17 W/m 15,6 C 17,0 C 14,5 km/h (3 Bft) 100,00 %
01.08.2016 06:18 17,7 C 87 % 1015,0 hPa 0,0 l/m 9,4 km/h (2 Bft) W-SW 246 0 min 0,000 mm 0,0 UV-I 20 W/m 15,5 C 16,3 C 12,9 km/h (3 Bft) 100,00 %
01.08.2016 06:20 17,7 C 87 % 1015,0 hPa 0,0 l/m 6,9 km/h (2 Bft) W-SW 249 0 min 0,000 mm 0,0 UV-I 21 W/m 15,5 C 17,5 C 12,9 km/h (3 Bft) 96,00 %
01.08.2016 06:22 17,7 C 87 % 1015,0 hPa 0,0 l/m 6,9 km/h (2 Bft) W-SW 254 0 min 0,000 mm 0,0 UV-I 23 W/m 15,5 C 17,5 C 11,3 km/h (2 Bft) 100,00 %
01.08.2016 06:24 17,7 C 88 % 1015,0 hPa 0,0 l/m 10,7 km/h (2 Bft) W-SW 240 0 min 0,000 mm 0,0 UV-I 26 W/m 15,7 C 15,8 C 16,1 km/h (3 Bft) 95,12 %
01.08.2016 06:26 17,6 C 88 % 1015,0 hPa 0,0 l/m 6,9 km/h (2 Bft) S 186 0 min 0,000 mm 0,0 UV-I 33 W/m 15,6 C 17,4 C 16,1 km/h (3 Bft) 97,87 %
01.08.2016 06:28 17,6 C 88 % 1015,0 hPa 0,0 l/m 5,3 km/h (1 Bft) W-NW 283 0 min 0,000 mm 0,0 UV-I 41 W/m 15,6 C 17,6 C 9,7 km/h (2 Bft) 98,11 %
01.08.2016 06:30 17,5 C 88 % 1015,1 hPa 0,0 l/m 6,7 km/h (2 Bft) W-SW 255 0 min 0,000 mm 0,0 UV-I 48 W/m 15,5 C 17,4 C 11,3 km/h (2 Bft) 95,24 %
01.08.2016 06:32 17,5 C 88 % 1015,1 hPa 0,0 l/m 6,4 km/h (2 Bft) SW 229 0 min 0,000 mm 0,0 UV-I 51 W/m 15,5 C 17,5 C 11,3 km/h (2 Bft) 98,08 %
01.08.2016 06:34 17,5 C 88 % 1015,1 hPa 0,0 l/m 4,3 km/h (1 Bft) W-NW 291 0 min 0,000 mm 0,0 UV-I 44 W/m 15,5 C 17,5 C 6,4 km/h (2 Bft) 94,87 %
01.08.2016 06:36 17,4 C 88 % 1015,1 hPa 0,0 l/m 6,8 km/h (2 Bft) W 265 0 min 0,000 mm 0,0 UV-I 41 W/m 15,4 C 17,2 C 12,9 km/h (3 Bft) 97,56 %
01.08.2016 06:38 17,4 C 88 % 1015,1 hPa 0,0 l/m 7,6 km/h (2 Bft) W 264 0 min 0,000 mm 0,0 UV-I 40 W/m 15,4 C 16,8 C 12,9 km/h (3 Bft) 96,23 %
01.08.2016 06:40 17,4 C 88 % 1015,1 hPa 0,0 l/m 5,7 km/h (1 Bft) W-SW 248 0 min 0,000 mm 0,0 UV-I 39 W/m 15,4 C 17,4 C 11,3 km/h (2 Bft) 98,00 %
01.08.2016 06:42 17,4 C 88 % 1015,2 hPa 0,0 l/m 13,0 km/h (3 Bft) W-SW 243 0 min 0,000 mm 0,0 UV-I 40 W/m 15,4 C 14,7 C 19,3 km/h (3 Bft) 96,23 %
01.08.2016 06:44 17,4 C 88 % 1015,2 hPa 0,0 l/m 9,3 km/h (2 Bft) W-SW 238 0 min 0,000 mm 0,0 UV-I 42 W/m 15,4 C 16,1 C 14,5 km/h (3 Bft) 97,14 %
01.08.2016 06:46 17,4 C 88 % 1015,3 hPa 0,0 l/m 7,0 km/h (2 Bft) W-SW 250 0 min 0,000 mm 0,0 UV-I 40 W/m 15,4 C 17,1 C 12,9 km/h (3 Bft) 98,21 %
01.08.2016 06:48 17,4 C 88 % 1015,3 hPa 0,0 l/m 7,9 km/h (2 Bft) W-SW 250 0 min 0,000 mm 0,0 UV-I 42 W/m 15,4 C 16,7 C 12,9 km/h (3 Bft) 97,37 %
01.08.2016 06:50 17,4 C 88 % 1015,3 hPa 0,0 l/m 7,6 km/h (2 Bft) SW 232 0 min 0,000 mm 0,0 UV-I 43 W/m 15,4 C 16,8 C 12,9 km/h (3 Bft) 98,11 %
01.08.2016 06:52 17,4 C 88 % 1015,3 hPa 0,0 l/m 7,3 km/h (2 Bft) W-SW 240 0 min 0,000 mm 0,0 UV-I 43 W/m 15,4 C 17,0 C 14,5 km/h (3 Bft) 100,00 %
01.08.2016 06:54 17,4 C 88 % 1015,3 hPa 0,0 l/m 7,2 km/h (2 Bft) SW 224 0 min 0,000 mm 0,0 UV-I 60 W/m 15,4 C 17,0 C 14,5 km/h (3 Bft) 96,43 %
01.08.2016 06:56 17,4 C 88 % 1015,4 hPa 0,0 l/m 8,0 km/h (2 Bft) W-SW 244 0 min 0,000 mm 0,0 UV-I 92 W/m 15,4 C 16,6 C 11,3 km/h (2 Bft) 97,87 %
01.08.2016 06:58 17,4 C 88 % 1015,4 hPa 0,0 l/m 7,4 km/h (2 Bft) W-SW 243 0 min 0,000 mm 0,0 UV-I 92 W/m 15,4 C 16,9 C 14,5 km/h (3 Bft) 97,87 %
01.08.2016 07:00 17,4 C 88 % 1015,4 hPa 0,0 l/m 9,6 km/h (2 Bft) SW 223 0 min 0,026 mm 0,0 UV-I 102 W/m 15,4 C 15,9 C 14,5 km/h (3 Bft) 100,00 %
01.08.2016 07:02 17,4 C 88 % 1015,4 hPa 0,0 l/m 8,1 km/h (2 Bft) SW 232 0 min 0,000 mm 0,0 UV-I 104 W/m 15,4 C 16,6 C 12,9 km/h (3 Bft) 100,00 %
01.08.2016 07:04 17,4 C 88 % 1015,4 hPa 0,0 l/m 10,2 km/h (2 Bft) W-SW 244 0 min 0,000 mm 0,0 UV-I 112 W/m 15,4 C 15,7 C 16,1 km/h (3 Bft) 98,21 %
01.08.2016 07:06 17,4 C 87 % 1015,5 hPa 0,0 l/m 12,8 km/h (3 Bft) W 261 0 min 0,000 mm 0,0 UV-I 116 W/m 15,2 C 14,8 C 22,5 km/h (4 Bft) 100,00 %
01.08.2016 07:08 17,4 C 87 % 1015,3 hPa 0,0 l/m 10,4 km/h (2 Bft) W-SW 247 0 min 0,000 mm 0,0 UV-I 118 W/m 15,2 C 15,6 C 16,1 km/h (3 Bft) 100,00 %
01.08.2016 07:10 17,5 C 87 % 1015,4 hPa 0,0 l/m 9,8 km/h (2 Bft) SW 223 0 min 0,000 mm 0,0 UV-I 111 W/m 15,3 C 16,0 C 12,9 km/h (3 Bft) 100,00 %
01.08.2016 07:12 17,5 C 87 % 1015,4 hPa 0,0 l/m 10,1 km/h (2 Bft) W 268 2 min 0,000 mm 0,0 UV-I 133 W/m 15,3 C 15,8 C 16,1 km/h (3 Bft) 100,00 %
01.08.2016 07:14 17,6 C 87 % 1015,5 hPa 0,0 l/m 12,0 km/h (2 Bft) W-SW 246 0 min 0,000 mm 0,0 UV-I 124 W/m 15,4 C 15,3 C 19,3 km/h (3 Bft) 96,00 %
01.08.2016 07:16 17,6 C 86 % 1015,4 hPa 0,0 l/m 12,8 km/h (3 Bft) SW 228 0 min 0,000 mm 0,0 UV-I 123 W/m 15,2 C 15,0 C 17,7 km/h (3 Bft) 100,00 %
01.08.2016 07:18 17,6 C 86 % 1015,5 hPa 0,0 l/m 10,2 km/h (2 Bft) S-SW 205 2 min 0,000 mm 0,0 UV-I 144 W/m 15,2 C 15,9 C 16,1 km/h (3 Bft) 96,43 %
01.08.2016 07:20 17,6 C 85 % 1015,5 hPa 0,0 l/m 15,9 km/h (3 Bft) SW 219 2 min 0,000 mm 0,0 UV-I 140 W/m 15,0 C 14,1 C 22,5 km/h (4 Bft) 100,00 %
01.08.2016 07:22 17,7 C 86 % 1015,6 hPa 0,0 l/m 15,1 km/h (3 Bft) W 261 0 min 0,000 mm 0,0 UV-I 141 W/m 15,3 C 14,4 C 24,1 km/h (4 Bft) 100,00 %
01.08.2016 07:24 17,7 C 85 % 1015,6 hPa 0,0 l/m 12,7 km/h (3 Bft) W 269 2 min 0,000 mm 0,0 UV-I 149 W/m 15,1 C 15,2 C 19,3 km/h (3 Bft) 100,00 %
01.08.2016 07:26 17,7 C 86 % 1015,6 hPa 0,0 l/m 13,7 km/h (3 Bft) W 261 2 min 0,000 mm 0,0 UV-I 153 W/m 15,3 C 14,8 C 20,9 km/h (4 Bft) 97,87 %
01.08.2016 07:28 17,8 C 85 % 1015,6 hPa 0,0 l/m 13,8 km/h (3 Bft) SW 232 0 min 0,000 mm 0,0 UV-I 148 W/m 15,2 C 14,9 C 22,5 km/h (4 Bft) 97,56 %
01.08.2016 07:30 17,8 C 85 % 1015,6 hPa 0,0 l/m 14,0 km/h (3 Bft) SW 236 2 min 0,000 mm 0,0 UV-I 165 W/m 15,2 C 14,9 C 20,9 km/h (4 Bft) 100,00 %
01.08.2016 07:32 17,8 C 84 % 1015,6 hPa 0,0 l/m 13,5 km/h (3 Bft) W-SW 253 2 min 0,000 mm 0,0 UV-I 184 W/m 15,1 C 15,0 C 22,5 km/h (4 Bft) 97,37 %
01.08.2016 07:34 17,8 C 84 % 1015,5 hPa 0,0 l/m 12,2 km/h (2 Bft) W 269 2 min 0,000 mm 0,5 UV-I 187 W/m 15,1 C 15,4 C 19,3 km/h (3 Bft) 98,11 %
01.08.2016 07:36 17,8 C 83 % 1015,5 hPa 0,0 l/m 16,7 km/h (3 Bft) W-SW 238 2 min 0,000 mm 0,5 UV-I 202 W/m 14,9 C 14,1 C 22,5 km/h (4 Bft) 100,00 %
01.08.2016 07:38 17,8 C 84 % 1015,5 hPa 0,0 l/m 11,2 km/h (2 Bft) W-SW 239 2 min 0,000 mm 0,5 UV-I 213 W/m 15,1 C 15,8 C 19,3 km/h (3 Bft) 98,00 %
01.08.2016 07:40 17,9 C 84 % 1015,5 hPa 0,0 l/m 11,9 km/h (2 Bft) W-SW 246 2 min 0,000 mm 0,5 UV-I 221 W/m 15,2 C 15,6 C 22,5 km/h (4 Bft) 100,00 %
01.08.2016 07:42 17,9 C 83 % 1015,6 hPa 0,0 l/m 13,3 km/h (3 Bft) SW 227 2 min 0,000 mm 0,6 UV-I 234 W/m 15,0 C 15,2 C 17,7 km/h (3 Bft) 100,00 %
01.08.2016 07:44 17,9 C 84 % 1015,7 hPa 0,0 l/m 11,6 km/h (2 Bft) W-SW 250 0 min 0,000 mm 0,6 UV-I 165 W/m 15,2 C 15,7 C 17,7 km/h (3 Bft) 100,00 %
01.08.2016 07:46 17,9 C 83 % 1015,6 hPa 0,0 l/m 17,3 km/h (3 Bft) W-NW 286 2 min 0,000 mm 0,6 UV-I 204 W/m 15,0 C 14,1 C 29,0 km/h (5 Bft) 100,00 %
01.08.2016 07:48 17,9 C 83 % 1015,6 hPa 0,0 l/m 13,9 km/h (3 Bft) W 269 2 min 0,000 mm 0,6 UV-I 225 W/m 15,0 C 15,0 C 24,1 km/h (4 Bft) 100,00 %
01.08.2016 07:50 17,9 C 82 % 1015,6 hPa 0,0 l/m 17,7 km/h (3 Bft) W-SW 238 2 min 0,000 mm 0,6 UV-I 252 W/m 14,8 C 14,0 C 24,1 km/h (4 Bft) 100,00 %
01.08.2016 07:52 17,9 C 83 % 1015,6 hPa 0,0 l/m 13,2 km/h (3 Bft) W 271 2 min 0,000 mm 0,7 UV-I 264 W/m 15,0 C 15,2 C 19,3 km/h (3 Bft) 100,00 %
01.08.2016 07:54 18,1 C 83 % 1015,6 hPa 0,0 l/m 12,1 km/h (2 Bft) W-SW 248 2 min 0,000 mm 0,7 UV-I 269 W/m 15,2 C 15,8 C 22,5 km/h (4 Bft) 100,00 %
01.08.2016 07:56 18,1 C 83 % 1015,7 hPa 0,0 l/m 14,4 km/h (3 Bft) SW 225 2 min 0,000 mm 0,7 UV-I 277 W/m 15,2 C 15,1 C 27,4 km/h (4 Bft) 97,73 %
01.08.2016 07:58 18,2 C 82 % 1015,7 hPa 0,0 l/m 13,3 km/h (3 Bft) W 263 2 min 0,000 mm 0,8 UV-I 281 W/m 15,1 C 15,6 C 22,5 km/h (4 Bft) 100,00 %
01.08.2016 08:00 18,2 C 81 % 1015,7 hPa 0,0 l/m 15,2 km/h (3 Bft) W-SW 248 2 min 0,127 mm 0,8 UV-I 279 W/m 14,9 C 15,0 C 24,1 km/h (4 Bft) 100,00 %
01.08.2016 08:02 18,2 C 81 % 1015,8 hPa 0,0 l/m 18,5 km/h (3 Bft) SW 236 2 min 0,000 mm 0,8 UV-I 279 W/m 14,9 C 14,2 C 25,7 km/h (4 Bft) 100,00 %
01.08.2016 08:04 18,1 C 81 % 1015,8 hPa 0,0 l/m 14,9 km/h (3 Bft) SW 236 2 min 0,000 mm 0,8 UV-I 246 W/m 14,8 C 15,0 C 20,9 km/h (4 Bft) 100,00 %
01.08.2016 08:06 18,1 C 80 % 1015,9 hPa 0,0 l/m 19,0 km/h (3 Bft) W-SW 244 2 min 0,000 mm 0,8 UV-I 266 W/m 14,6 C 14,0 C 29,0 km/h (5 Bft) 100,00 %
01.08.2016 08:08 18,1 C 81 % 1015,8 hPa 0,0 l/m 8,0 km/h (2 Bft) W-SW 246 2 min 0,000 mm 0,8 UV-I 309 W/m 14,8 C 17,4 C 12,9 km/h (3 Bft) 100,00 %
01.08.2016 08:10 18,1 C 80 % 1015,8 hPa 0,0 l/m 12,7 km/h (3 Bft) SW 228 2 min 0,000 mm 0,9 UV-I 299 W/m 14,6 C 15,6 C 19,3 km/h (3 Bft) 100,00 %
01.08.2016 08:12 18,1 C 81 % 1015,9 hPa 0,0 l/m 7,6 km/h (2 Bft) W-SW 253 2 min 0,000 mm 1,0 UV-I 298 W/m 14,8 C 17,5 C 12,9 km/h (3 Bft) 100,00 %
01.08.2016 08:14 18,2 C 81 % 1015,9 hPa 0,0 l/m 11,0 km/h (2 Bft) SW 227 2 min 0,000 mm 1,0 UV-I 287 W/m 14,9 C 16,3 C 19,3 km/h (3 Bft) 100,00 %
01.08.2016 08:16 18,3 C 82 % 1016,0 hPa 0,0 l/m 12,2 km/h (2 Bft) W-SW 248 2 min 0,000 mm 1,0 UV-I 238 W/m 15,2 C 16,0 C 25,7 km/h (4 Bft) 100,00 %
01.08.2016 08:18 18,4 C 80 % 1015,9 hPa 0,0 l/m 15,2 km/h (3 Bft) W-SW 244 2 min 0,000 mm 1,0 UV-I 278 W/m 14,9 C 15,3 C 20,9 km/h (4 Bft) 100,00 %
01.08.2016 08:20 18,3 C 80 % 1016,0 hPa 0,0 l/m 14,2 km/h (3 Bft) SW 235 0 min 0,000 mm 1,0 UV-I 220 W/m 14,8 C 15,4 C 20,9 km/h (4 Bft) 100,00 %
01.08.2016 08:22 18,3 C 80 % 1016,0 hPa 0,0 l/m 14,9 km/h (3 Bft) W-SW 237 0 min 0,000 mm 1,0 UV-I 220 W/m 14,8 C 15,2 C 20,9 km/h (4 Bft) 97,22 %
01.08.2016 08:24 18,3 C 81 % 1016,0 hPa 0,0 l/m 15,6 km/h (3 Bft) W-SW 242 2 min 0,000 mm 1,0 UV-I 262 W/m 15,0 C 15,0 C 22,5 km/h (4 Bft) 97,87 %
01.08.2016 08:26 18,3 C 80 % 1016,1 hPa 0,0 l/m 21,5 km/h (4 Bft) SW 235 0 min 0,000 mm 0,9 UV-I 184 W/m 14,8 C 13,7 C 29,0 km/h (5 Bft) 96,36 %
01.08.2016 08:28 18,2 C 81 % 1016,1 hPa 0,0 l/m 14,3 km/h (3 Bft) W 262 0 min 0,000 mm 0,9 UV-I 111 W/m 14,9 C 15,3 C 20,9 km/h (4 Bft) 97,44 %
01.08.2016 08:30 18,2 C 81 % 1016,1 hPa 0,0 l/m 13,8 km/h (3 Bft) W-NW 290 0 min 0,000 mm 1,0 UV-I 231 W/m 14,9 C 15,4 C 22,5 km/h (4 Bft) 98,11 %
01.08.2016 08:32 18,2 C 81 % 1016,2 hPa 0,0 l/m 13,8 km/h (3 Bft) W 269 0 min 0,000 mm 1,0 UV-I 178 W/m 14,9 C 15,4 C 22,5 km/h (4 Bft) 92,68 %
01.08.2016 08:34 18,2 C 81 % 1016,2 hPa 0,0 l/m 10,0 km/h (2 Bft) W-SW 238 2 min 0,000 mm 1,1 UV-I 266 W/m 14,9 C 16,7 C 17,7 km/h (3 Bft) 96,00 %
01.08.2016 08:36 18,2 C 81 % 1016,3 hPa 0,0 l/m 9,0 km/h (2 Bft) W-SW 251 2 min 0,000 mm 1,1 UV-I 264 W/m 14,9 C 17,0 C 17,7 km/h (3 Bft) 96,00 %
01.08.2016 08:38 18,2 C 80 % 1016,3 hPa 0,0 l/m 12,7 km/h (3 Bft) W 277 2 min 0,000 mm 1,2 UV-I 297 W/m 14,7 C 15,7 C 19,3 km/h (3 Bft) 95,74 %
01.08.2016 08:40 18,3 C 81 % 1016,3 hPa 0,0 l/m 10,5 km/h (2 Bft) W 265 2 min 0,000 mm 1,2 UV-I 379 W/m 15,0 C 16,6 C 16,1 km/h (3 Bft) 98,00 %
01.08.2016 08:42 18,4 C 80 % 1016,3 hPa 0,0 l/m 8,6 km/h (2 Bft) W 275 2 min 0,000 mm 1,1 UV-I 315 W/m 14,9 C 17,4 C 14,5 km/h (3 Bft) 97,56 %
01.08.2016 08:44 18,4 C 81 % 1016,4 hPa 0,0 l/m 8,7 km/h (2 Bft) W-SW 250 0 min 0,000 mm 1,2 UV-I 236 W/m 15,1 C 17,4 C 14,5 km/h (3 Bft) 98,11 %
01.08.2016 08:46 18,5 C 80 % 1016,4 hPa 0,0 l/m 11,8 km/h (2 Bft) NW 325 0 min 0,000 mm 1,2 UV-I 253 W/m 15,0 C 16,4 C 22,5 km/h (4 Bft) 97,73 %
01.08.2016 08:48 18,5 C 80 % 1016,4 hPa 0,0 l/m 11,4 km/h (2 Bft) W-SW 250 2 min 0,000 mm 1,2 UV-I 288 W/m 15,0 C 16,5 C 20,9 km/h (4 Bft) 97,37 %
01.08.2016 08:50 18,5 C 80 % 1016,4 hPa 0,0 l/m 11,7 km/h (2 Bft) N-NW 338 0 min 0,000 mm 1,4 UV-I 261 W/m 15,0 C 16,4 C 20,9 km/h (4 Bft) 98,21 %
01.08.2016 08:52 18,5 C 79 % 1016,4 hPa 0,0 l/m 13,6 km/h (3 Bft) W-SW 248 0 min 0,000 mm 1,2 UV-I 257 W/m 14,8 C 15,8 C 20,9 km/h (4 Bft) 97,56 %
01.08.2016 08:54 18,5 C 79 % 1016,5 hPa 0,0 l/m 12,4 km/h (3 Bft) W-SW 249 0 min 0,000 mm 1,3 UV-I 253 W/m 14,8 C 16,2 C 19,3 km/h (3 Bft) 97,87 %
01.08.2016 08:56 18,4 C 79 % 1016,5 hPa 0,0 l/m 7,8 km/h (2 Bft) W 272 0 min 0,000 mm 1,3 UV-I 240 W/m 14,7 C 17,8 C 12,9 km/h (3 Bft) 98,00 %
01.08.2016 08:58 18,5 C 79 % 1016,5 hPa 0,0 l/m 12,9 km/h (3 Bft) W-NW 282 0 min 0,000 mm 1,4 UV-I 264 W/m 14,8 C 16,0 C 19,3 km/h (3 Bft) 100,00 %
01.08.2016 09:00 18,7 C 80 % 1016,5 hPa 0,0 l/m 9,7 km/h (2 Bft) W-SW 244 2 min 0,178 mm 1,5 UV-I 313 W/m 15,2 C 17,3 C 12,9 km/h (3 Bft) 98,11 %
01.08.2016 09:02 18,7 C 79 % 1016,5 hPa 0,0 l/m 9,1 km/h (2 Bft) SW 232 0 min 0,000 mm 1,5 UV-I 281 W/m 15,0 C 17,5 C 14,5 km/h (3 Bft) 100,00 %
01.08.2016 09:04 18,8 C 79 % 1016,5 hPa 0,0 l/m 6,4 km/h (2 Bft) W-SW 253 0 min 0,000 mm 1,4 UV-I 273 W/m 15,1 C 18,8 C 11,3 km/h (2 Bft) 100,00 %
01.08.2016 09:06 18,8 C 78 % 1016,4 hPa 0,0 l/m 6,4 km/h (2 Bft) SW 233 0 min 0,000 mm 1,4 UV-I 237 W/m 14,9 C 18,8 C 11,3 km/h (2 Bft) 100,00 %
01.08.2016 09:08 18,7 C 78 % 1016,4 hPa 0,0 l/m 5,5 km/h (1 Bft) SW 234 0 min 0,000 mm 1,4 UV-I 211 W/m 14,8 C 18,7 C 11,3 km/h (2 Bft) 96,23 %
01.08.2016 09:10 18,7 C 78 % 1016,4 hPa 0,0 l/m 8,8 km/h (2 Bft) W 275 0 min 0,000 mm 1,4 UV-I 185 W/m 14,8 C 17,7 C 19,3 km/h (3 Bft) 100,00 %
01.08.2016 09:12 18,7 C 78 % 1016,4 hPa 0,0 l/m 9,4 km/h (2 Bft) W 281 0 min 0,000 mm 1,5 UV-I 176 W/m 14,8 C 17,4 C 14,5 km/h (3 Bft) 100,00 %
01.08.2016 09:14 18,7 C 78 % 1016,4 hPa 0,0 l/m 6,6 km/h (2 Bft) S-SW 211 0 min 0,000 mm 1,5 UV-I 238 W/m 14,8 C 18,6 C 11,3 km/h (2 Bft) 100,00 %
01.08.2016 09:16 18,7 C 78 % 1016,5 hPa 0,0 l/m 10,0 km/h (2 Bft) W 265 0 min 0,000 mm 1,5 UV-I 258 W/m 14,8 C 17,2 C 19,3 km/h (3 Bft) 98,21 %
01.08.2016 09:18 18,7 C 77 % 1016,5 hPa 0,0 l/m 9,7 km/h (2 Bft) W-SW 254 0 min 0,000 mm 1,6 UV-I 250 W/m 14,6 C 17,3 C 20,9 km/h (4 Bft) 100,00 %
01.08.2016 09:20 18,7 C 77 % 1016,5 hPa 0,0 l/m 11,1 km/h (2 Bft) NW 309 0 min 0,000 mm 1,6 UV-I 232 W/m 14,6 C 16,8 C 20,9 km/h (4 Bft) 100,00 %
01.08.2016 09:22 18,7 C 77 % 1016,5 hPa 0,0 l/m 7,9 km/h (2 Bft) W-SW 244 0 min 0,000 mm 1,6 UV-I 292 W/m 14,6 C 18,0 C 16,1 km/h (3 Bft) 100,00 %
01.08.2016 09:24 18,7 C 77 % 1016,5 hPa 0,0 l/m 9,7 km/h (2 Bft) W 266 0 min 0,000 mm 1,7 UV-I 310 W/m 14,6 C 17,3 C 17,7 km/h (3 Bft) 97,87 %
01.08.2016 09:26 18,8 C 77 % 1016,5 hPa 0,0 l/m 8,3 km/h (2 Bft) W-SW 238 0 min 0,000 mm 1,7 UV-I 250 W/m 14,7 C 18,0 C 19,3 km/h (3 Bft) 97,37 %
01.08.2016 09:28 18,7 C 76 % 1016,5 hPa 0,0 l/m 11,5 km/h (2 Bft) W-SW 248 0 min 0,000 mm 1,7 UV-I 267 W/m 14,4 C 16,7 C 22,5 km/h (4 Bft) 100,00 %
01.08.2016 09:30 18,7 C 77 % 1016,5 hPa 0,0 l/m 6,9 km/h (2 Bft) SW 229 0 min 0,000 mm 1,7 UV-I 232 W/m 14,6 C 18,5 C 14,5 km/h (3 Bft) 98,11 %
01.08.2016 09:32 18,7 C 76 % 1016,5 hPa 0,0 l/m 8,9 km/h (2 Bft) W 280 0 min 0,000 mm 1,6 UV-I 203 W/m 14,4 C 17,6 C 14,5 km/h (3 Bft) 100,00 %
01.08.2016 09:34 18,6 C 75 % 1016,6 hPa 0,0 l/m 10,6 km/h (2 Bft) W 277 0 min 0,000 mm 1,7 UV-I 278 W/m 14,1 C 16,9 C 20,9 km/h (4 Bft) 100,00 %
01.08.2016 09:36 18,6 C 76 % 1016,6 hPa 0,0 l/m 10,2 km/h (2 Bft) W 278 0 min 0,000 mm 1,6 UV-I 204 W/m 14,3 C 17,0 C 19,3 km/h (3 Bft) 97,87 %
01.08.2016 09:38 18,6 C 76 % 1016,6 hPa 0,0 l/m 7,9 km/h (2 Bft) SW 234 0 min 0,000 mm 1,4 UV-I 172 W/m 14,3 C 17,9 C 14,5 km/h (3 Bft) 100,00 %
01.08.2016 09:40 18,5 C 76 % 1016,6 hPa 0,0 l/m 8,9 km/h (2 Bft) W-SW 257 0 min 0,000 mm 1,4 UV-I 155 W/m 14,2 C 17,4 C 17,7 km/h (3 Bft) 100,00 %
01.08.2016 09:42 18,4 C 75 % 1016,6 hPa 0,0 l/m 10,0 km/h (2 Bft) W 281 0 min 0,000 mm 1,6 UV-I 162 W/m 13,9 C 16,9 C 17,7 km/h (3 Bft) 100,00 %
01.08.2016 09:44 18,4 C 75 % 1016,6 hPa 0,0 l/m 11,5 km/h (2 Bft) SW 228 0 min 0,000 mm 1,9 UV-I 270 W/m 13,9 C 16,4 C 17,7 km/h (3 Bft) 98,18 %
01.08.2016 09:46 18,6 C 75 % 1016,6 hPa 0,0 l/m 11,0 km/h (2 Bft) SW 232 2 min 0,000 mm 2,0 UV-I 365 W/m 14,1 C 16,7 C 19,3 km/h (3 Bft) 97,56 %
01.08.2016 09:48 18,7 C 75 % 1016,6 hPa 0,0 l/m 13,1 km/h (3 Bft) W-SW 250 2 min 0,000 mm 2,4 UV-I 482 W/m 14,2 C 16,2 C 19,3 km/h (3 Bft) 100,00 %
01.08.2016 09:50 18,9 C 75 % 1016,6 hPa 0,0 l/m 11,1 km/h (2 Bft) W 262 2 min 0,000 mm 2,5 UV-I 530 W/m 14,4 C 17,0 C 16,1 km/h (3 Bft) 100,00 %
01.08.2016 09:52 19,1 C 75 % 1016,6 hPa 0,0 l/m 10,6 km/h (2 Bft) W-SW 244 2 min 0,000 mm 2,2 UV-I 418 W/m 14,6 C 17,4 C 17,7 km/h (3 Bft) 100,00 %
01.08.2016 09:54 19,1 C 74 % 1016,6 hPa 0,0 l/m 11,6 km/h (2 Bft) SW 232 2 min 0,000 mm 2,2 UV-I 389 W/m 14,4 C 17,1 C 20,9 km/h (4 Bft) 100,00 %
01.08.2016 09:56 19,2 C 74 % 1016,6 hPa 0,0 l/m 9,2 km/h (2 Bft) W 268 2 min 0,000 mm 2,3 UV-I 428 W/m 14,4 C 18,0 C 19,3 km/h (3 Bft) 97,37 %
01.08.2016 09:58 19,2 C 73 % 1016,7 hPa 0,0 l/m 5,7 km/h (1 Bft) W 268 2 min 0,000 mm 2,3 UV-I 391 W/m 14,2 C 19,2 C 9,7 km/h (2 Bft) 98,11 %
01.08.2016 10:00 19,3 C 73 % 1016,6 hPa 0,0 l/m 7,3 km/h (2 Bft) N-NW 329 2 min 0,203 mm 2,4 UV-I 425 W/m 14,3 C 18,9 C 14,5 km/h (3 Bft) 100,00 %
01.08.2016 10:02 19,3 C 73 % 1016,6 hPa 0,0 l/m 6,2 km/h (2 Bft) W-SW 248 2 min 0,000 mm 2,6 UV-I 473 W/m 14,3 C 19,3 C 11,3 km/h (2 Bft) 100,00 %
01.08.2016 10:04 19,5 C 73 % 1016,6 hPa 0,0 l/m 11,4 km/h (2 Bft) W-NW 300 2 min 0,000 mm 3,0 UV-I 601 W/m 14,5 C 17,6 C 20,9 km/h (4 Bft) 96,00 %
01.08.2016 10:06 19,6 C 72 % 1016,6 hPa 0,0 l/m 5,0 km/h (1 Bft) W 278 2 min 0,000 mm 2,6 UV-I 536 W/m 14,4 C 19,6 C 12,9 km/h (3 Bft) 100,00 %
01.08.2016 10:08 19,7 C 71 % 1016,7 hPa 0,0 l/m 8,1 km/h (2 Bft) SW 225 2 min 0,000 mm 2,9 UV-I 611 W/m 14,3 C 19,0 C 19,3 km/h (3 Bft) 100,00 %
01.08.2016 10:10 19,7 C 72 % 1016,7 hPa 0,0 l/m 14,4 km/h (3 Bft) W-SW 244 0 min 0,000 mm 2,7 UV-I 362 W/m 14,5 C 17,0 C 19,3 km/h (3 Bft) 100,00 %
01.08.2016 10:12 19,7 C 72 % 1016,7 hPa 0,0 l/m 12,7 km/h (3 Bft) SW 232 2 min 0,000 mm 2,8 UV-I 414 W/m 14,5 C 17,5 C 20,9 km/h (4 Bft) 100,00 %
01.08.2016 10:14 19,7 C 70 % 1016,7 hPa 0,0 l/m 15,0 km/h (3 Bft) SW 224 2 min 0,000 mm 2,9 UV-I 566 W/m 14,1 C 16,9 C 24,1 km/h (4 Bft) 100,00 %
01.08.2016 10:16 19,7 C 69 % 1016,8 hPa 0,0 l/m 13,6 km/h (3 Bft) W-SW 238 2 min 0,000 mm 2,6 UV-I 410 W/m 13,8 C 17,2 C 20,9 km/h (4 Bft) 94,34 %
01.08.2016 10:18 19,6 C 71 % 1016,7 hPa 0,0 l/m 10,1 km/h (2 Bft) W-SW 252 2 min 0,000 mm 3,1 UV-I 416 W/m 14,2 C 18,2 C 17,7 km/h (3 Bft) 97,62 %
01.08.2016 10:20 19,7 C 71 % 1016,7 hPa 0,0 l/m 8,6 km/h (2 Bft) W 278 2 min 0,000 mm 3,3 UV-I 642 W/m 14,3 C 18,8 C 17,7 km/h (3 Bft) 96,15 %
01.08.2016 10:22 19,8 C 69 % 1016,8 hPa 0,0 l/m 11,8 km/h (2 Bft) W-SW 257 2 min 0,000 mm 3,8 UV-I 724 W/m 13,9 C 17,9 C 24,1 km/h (4 Bft) 95,83 %
01.08.2016 10:24 19,9 C 69 % 1016,7 hPa 0,0 l/m 12,7 km/h (3 Bft) W-NW 295 2 min 0,000 mm 3,4 UV-I 643 W/m 14,0 C 17,7 C 19,3 km/h (3 Bft) 95,74 %
01.08.2016 10:26 19,9 C 69 % 1016,7 hPa 0,0 l/m 8,2 km/h (2 Bft) W-NW 285 2 min 0,000 mm 4,0 UV-I 533 W/m 14,0 C 19,2 C 16,1 km/h (3 Bft) 96,23 %
01.08.2016 10:28 20,1 C 66 % 1016,7 hPa 0,0 l/m 12,7 km/h (3 Bft) W 280 2 min 0,000 mm 4,1 UV-I 721 W/m 13,5 C 18,0 C 22,5 km/h (4 Bft) 97,56 %
01.08.2016 10:30 20,2 C 67 % 1016,7 hPa 0,0 l/m 5,2 km/h (1 Bft) W-NW 284 2 min 0,000 mm 3,9 UV-I 683 W/m 13,9 C 20,2 C 11,3 km/h (2 Bft) 98,00 %
01.08.2016 10:32 20,4 C 67 % 1016,7 hPa 0,0 l/m 14,3 km/h (3 Bft) W 263 2 min 0,000 mm 4,0 UV-I 664 W/m 14,1 C 17,9 C 20,9 km/h (4 Bft) 97,73 %
01.08.2016 10:34 20,4 C 67 % 1016,7 hPa 0,0 l/m 10,2 km/h (2 Bft) W 271 2 min 0,000 mm 3,4 UV-I 504 W/m 14,1 C 19,0 C 20,9 km/h (4 Bft) 98,00 %
01.08.2016 10:36 20,3 C 66 % 1016,7 hPa 0,0 l/m 6,0 km/h (2 Bft) N-NW 328 0 min 0,000 mm 3,5 UV-I 280 W/m 13,7 C 20,3 C 16,1 km/h (3 Bft) 97,87 %
01.08.2016 10:38 20,3 C 65 % 1016,8 hPa 0,0 l/m 9,9 km/h (2 Bft) W-SW 245 2 min 0,000 mm 4,4 UV-I 675 W/m 13,5 C 19,0 C 16,1 km/h (3 Bft) 96,00 %
01.08.2016 10:40 20,3 C 64 % 1016,8 hPa 0,0 l/m 15,1 km/h (3 Bft) W-SW 249 2 min 0,000 mm 4,4 UV-I 774 W/m 13,3 C 17,6 C 29,0 km/h (5 Bft) 94,74 %
01.08.2016 10:42 20,3 C 63 % 1016,7 hPa 0,0 l/m 15,9 km/h (3 Bft) W-SW 257 2 min 0,000 mm 4,5 UV-I 787 W/m 13,0 C 17,4 C 22,5 km/h (4 Bft) 98,11 %
01.08.2016 10:44 20,4 C 63 % 1016,7 hPa 0,0 l/m 16,3 km/h (3 Bft) W 279 2 min 0,000 mm 4,5 UV-I 798 W/m 13,1 C 17,4 C 22,5 km/h (4 Bft) 97,37 %
01.08.2016 10:46 20,4 C 63 % 1016,7 hPa 0,0 l/m 14,1 km/h (3 Bft) W-SW 242 2 min 0,000 mm 4,6 UV-I 795 W/m 13,1 C 17,9 C 20,9 km/h (4 Bft) 98,00 %
01.08.2016 10:48 20,4 C 64 % 1016,7 hPa 0,0 l/m 15,7 km/h (3 Bft) S-SW 210 2 min 0,000 mm 4,5 UV-I 806 W/m 13,4 C 17,6 C 24,1 km/h (4 Bft) 98,11 %
01.08.2016 10:50 20,4 C 64 % 1016,7 hPa 0,0 l/m 15,0 km/h (3 Bft) W-SW 239 2 min 0,000 mm 4,6 UV-I 826 W/m 13,4 C 17,7 C 22,5 km/h (4 Bft) 100,00 %
01.08.2016 10:52 20,6 C 63 % 1016,8 hPa 0,0 l/m 7,3 km/h (2 Bft) S-SW 213 2 min 0,000 mm 4,8 UV-I 847 W/m 13,3 C 20,2 C 14,5 km/h (3 Bft) 100,00 %
01.08.2016 10:54 20,8 C 64 % 1016,8 hPa 0,0 l/m 10,3 km/h (2 Bft) W 263 2 min 0,000 mm 4,8 UV-I 826 W/m 13,7 C 19,4 C 19,3 km/h (3 Bft) 100,00 %
01.08.2016 10:56 20,9 C 63 % 1016,8 hPa 0,0 l/m 11,6 km/h (2 Bft) NW 314 2 min 0,000 mm 4,8 UV-I 828 W/m 13,6 C 19,2 C 19,3 km/h (3 Bft) 98,11 %
01.08.2016 10:58 20,8 C 58 % 1016,8 hPa 0,0 l/m 12,4 km/h (3 Bft) W 260 2 min 0,000 mm 5,0 UV-I 823 W/m 12,2 C 18,8 C 20,9 km/h (4 Bft) 100,00 %
01.08.2016 11:00 20,7 C 59 % 1016,8 hPa 0,0 l/m 12,6 km/h (3 Bft) SW 227 2 min 0,432 mm 5,0 UV-I 808 W/m 12,4 C 18,7 C 19,3 km/h (3 Bft) 100,00 %
01.08.2016 11:02 20,7 C 60 % 1016,9 hPa 0,0 l/m 13,4 km/h (3 Bft) W-SW 242 2 min 0,000 mm 5,0 UV-I 812 W/m 12,7 C 18,5 C 20,9 km/h (4 Bft) 100,00 %
01.08.2016 11:04 20,7 C 61 % 1016,8 hPa 0,0 l/m 10,9 km/h (2 Bft) W 267 2 min 0,000 mm 5,1 UV-I 844 W/m 12,9 C 19,1 C 17,7 km/h (3 Bft) 100,00 %
01.08.2016 11:06 20,7 C 58 % 1016,9 hPa 0,0 l/m 12,8 km/h (3 Bft) SW 224 2 min 0,000 mm 5,1 UV-I 860 W/m 12,1 C 18,6 C 22,5 km/h (4 Bft) 100,00 %
01.08.2016 11:08 20,7 C 62 % 1016,9 hPa 0,0 l/m 8,0 km/h (2 Bft) W-SW 241 2 min 0,000 mm 5,2 UV-I 840 W/m 13,2 C 20,1 C 14,5 km/h (3 Bft) 98,21 %
01.08.2016 11:10 20,8 C 58 % 1016,8 hPa 0,0 l/m 10,5 km/h (2 Bft) SO 136 2 min 0,000 mm 5,3 UV-I 840 W/m 12,2 C 19,4 C 24,1 km/h (4 Bft) 98,00 %
01.08.2016 11:12 20,9 C 59 % 1016,9 hPa 0,0 l/m 11,4 km/h (2 Bft) W-SW 256 2 min 0,000 mm 5,4 UV-I 852 W/m 12,6 C 19,2 C 20,9 km/h (4 Bft) 100,00 %
01.08.2016 11:14 21,0 C 57 % 1016,9 hPa 0,0 l/m 8,5 km/h (2 Bft) W-NW 294 2 min 0,000 mm 5,4 UV-I 853 W/m 12,1 C 20,2 C 14,5 km/h (3 Bft) 100,00 %
01.08.2016 11:16 20,9 C 57 % 1016,8 hPa 0,0 l/m 8,7 km/h (2 Bft) W-SW 252 2 min 0,000 mm 5,4 UV-I 848 W/m 12,1 C 20,1 C 14,5 km/h (3 Bft) 100,00 %
01.08.2016 11:18 21,0 C 57 % 1016,9 hPa 0,0 l/m 8,2 km/h (2 Bft) S-SW 192 2 min 0,000 mm 5,4 UV-I 854 W/m 12,1 C 20,3 C 17,7 km/h (3 Bft) 100,00 %
01.08.2016 11:20 21,0 C 56 % 1016,9 hPa 0,0 l/m 7,5 km/h (2 Bft) S-SW 197 2 min 0,000 mm 5,5 UV-I 872 W/m 11,9 C 20,6 C 16,1 km/h (3 Bft) 100,00 %
01.08.2016 11:22 21,1 C 57 % 1016,9 hPa 0,0 l/m 10,7 km/h (2 Bft) W-SW 244 2 min 0,000 mm 5,6 UV-I 909 W/m 12,2 C 19,7 C 20,9 km/h (4 Bft) 100,00 %
01.08.2016 11:24 21,1 C 56 % 1016,9 hPa 0,0 l/m 7,6 km/h (2 Bft) NW 315 2 min 0,000 mm 5,1 UV-I 926 W/m 12,0 C 20,7 C 17,7 km/h (3 Bft) 100,00 %
01.08.2016 11:26 20,9 C 58 % 1016,9 hPa 0,0 l/m 8,8 km/h (2 Bft) W 264 2 min 0,000 mm 4,2 UV-I 929 W/m 12,3 C 20,0 C 12,9 km/h (3 Bft) 100,00 %
01.08.2016 11:28 20,8 C 58 % 1017,0 hPa 0,0 l/m 10,6 km/h (2 Bft) W-SW 246 2 min 0,000 mm 5,6 UV-I 899 W/m 12,2 C 19,3 C 17,7 km/h (3 Bft) 100,00 %
01.08.2016 11:30 20,8 C 58 % 1017,0 hPa 0,0 l/m 16,7 km/h (3 Bft) W-SW 246 2 min 0,000 mm 5,0 UV-I 882 W/m 12,2 C 17,9 C 22,5 km/h (4 Bft) 93,62 %
01.08.2016 11:32 20,9 C 59 % 1017,0 hPa 0,0 l/m 15,5 km/h (3 Bft) W-NW 284 2 min 0,000 mm 5,4 UV-I 850 W/m 12,6 C 18,2 C 22,5 km/h (4 Bft) 100,00 %
01.08.2016 11:34 21,1 C 58 % 1017,1 hPa 0,0 l/m 9,7 km/h (2 Bft) W-NW 288 2 min 0,000 mm 4,7 UV-I 918 W/m 12,5 C 19,9 C 20,9 km/h (4 Bft) 100,00 %
01.08.2016 11:36 21,0 C 59 % 1017,1 hPa 0,0 l/m 6,5 km/h (2 Bft) W-SW 241 2 min 0,000 mm 3,9 UV-I 666 W/m 12,7 C 21,0 C 12,9 km/h (3 Bft) 100,00 %
01.08.2016 11:38 21,0 C 59 % 1017,1 hPa 0,0 l/m 7,4 km/h (2 Bft) S-SW 211 2 min 0,000 mm 3,8 UV-I 759 W/m 12,7 C 20,6 C 12,9 km/h (3 Bft) 100,00 %
01.08.2016 11:40 20,9 C 57 % 1017,1 hPa 0,0 l/m 12,0 km/h (2 Bft) W-SW 237 0 min 0,000 mm 4,0 UV-I 352 W/m 12,1 C 19,1 C 19,3 km/h (3 Bft) 100,00 %
01.08.2016 11:42 20,8 C 59 % 1017,1 hPa 0,0 l/m 13,9 km/h (3 Bft) W 267 0 min 0,000 mm 4,5 UV-I 352 W/m 12,5 C 18,5 C 20,9 km/h (4 Bft) 100,00 %
01.08.2016 11:44 20,8 C 58 % 1017,1 hPa 0,0 l/m 13,4 km/h (3 Bft) SW 221 2 min 0,000 mm 4,6 UV-I 687 W/m 12,2 C 18,6 C 24,1 km/h (4 Bft) 100,00 %
01.08.2016 11:46 20,7 C 55 % 1017,2 hPa 0,0 l/m 17,1 km/h (3 Bft) W-SW 245 0 min 0,000 mm 3,5 UV-I 396 W/m 11,3 C 17,7 C 27,4 km/h (4 Bft) 100,00 %
01.08.2016 11:48 20,6 C 59 % 1017,2 hPa 0,0 l/m 12,4 km/h (3 Bft) W-SW 240 0 min 0,000 mm 5,0 UV-I 236 W/m 12,3 C 18,6 C 19,3 km/h (3 Bft) 100,00 %
01.08.2016 11:50 20,8 C 57 % 1017,2 hPa 0,0 l/m 12,2 km/h (2 Bft) SW 234 2 min 0,000 mm 5,9 UV-I 799 W/m 12,0 C 18,9 C 19,3 km/h (3 Bft) 100,00 %
01.08.2016 11:52 20,9 C 58 % 1017,2 hPa 0,0 l/m 13,0 km/h (3 Bft) W 268 2 min 0,000 mm 6,1 UV-I 861 W/m 12,3 C 18,8 C 19,3 km/h (3 Bft) 97,50 %
01.08.2016 11:54 21,1 C 60 % 1017,2 hPa 0,0 l/m 9,5 km/h (2 Bft) W-SW 248 2 min 0,000 mm 6,2 UV-I 946 W/m 13,0 C 20,0 C 19,3 km/h (3 Bft) 100,00 %
01.08.2016 11:56 21,1 C 57 % 1017,2 hPa 0,0 l/m 12,0 km/h (2 Bft) W 259 2 min 0,000 mm 6,3 UV-I 951 W/m 12,2 C 19,3 C 17,7 km/h (3 Bft) 94,34 %
01.08.2016 11:58 21,2 C 60 % 1017,2 hPa 0,0 l/m 5,8 km/h (2 Bft) W-SW 240 2 min 0,000 mm 5,8 UV-I 910 W/m 13,1 C 21,2 C 12,9 km/h (3 Bft) 100,00 %
01.08.2016 12:00 21,3 C 56 % 1017,3 hPa 0,0 l/m 12,5 km/h (3 Bft) W-NW 286 2 min 0,508 mm 5,1 UV-I 624 W/m 12,2 C 19,4 C 19,3 km/h (3 Bft) 100,00 %
01.08.2016 12:02 21,2 C 58 % 1017,2 hPa 0,0 l/m 7,1 km/h (2 Bft) W-SW 257 2 min 0,000 mm 5,7 UV-I 861 W/m 12,6 C 20,9 C 16,1 km/h (3 Bft) 100,00 %
01.08.2016 12:04 21,1 C 57 % 1017,2 hPa 0,0 l/m 11,2 km/h (2 Bft) S-SW 210 2 min 0,000 mm 4,5 UV-I 745 W/m 12,2 C 19,5 C 19,3 km/h (3 Bft) 100,00 %
01.08.2016 12:06 21,0 C 57 % 1017,2 hPa 0,0 l/m 9,0 km/h (2 Bft) W-NW 284 0 min 0,000 mm 5,1 UV-I 378 W/m 12,1 C 20,1 C 16,1 km/h (3 Bft) 97,73 %
01.08.2016 12:08 21,1 C 58 % 1017,2 hPa 0,0 l/m 11,6 km/h (2 Bft) W 261 2 min 0,000 mm 6,1 UV-I 646 W/m 12,5 C 19,4 C 22,5 km/h (4 Bft) 96,23 %
01.08.2016 12:10 21,1 C 57 % 1017,2 hPa 0,0 l/m 7,1 km/h (2 Bft) W-SW 244 2 min 0,000 mm 5,6 UV-I 906 W/m 12,2 C 20,8 C 14,5 km/h (3 Bft) 97,56 %
01.08.2016 12:12 21,1 C 58 % 1017,2 hPa 0,0 l/m 6,9 km/h (2 Bft) W-NW 293 2 min 0,000 mm 4,3 UV-I 591 W/m 12,5 C 20,9 C 14,5 km/h (3 Bft) 97,92 %
01.08.2016 12:14 21,1 C 58 % 1017,2 hPa 0,0 l/m 9,5 km/h (2 Bft) NW 304 2 min 0,000 mm 4,5 UV-I 618 W/m 12,5 C 20,0 C 16,1 km/h (3 Bft) 98,11 %
01.08.2016 12:16 20,9 C 59 % 1017,3 hPa 0,0 l/m 12,4 km/h (3 Bft) W 281 2 min 0,000 mm 5,1 UV-I 591 W/m 12,6 C 19,0 C 17,7 km/h (3 Bft) 94,87 %
01.08.2016 12:18 20,9 C 59 % 1017,2 hPa 0,0 l/m 7,5 km/h (2 Bft) SW 214 2 min 0,000 mm 4,2 UV-I 591 W/m 12,6 C 20,5 C 12,9 km/h (3 Bft) 98,00 %
01.08.2016 12:20 21,0 C 60 % 1017,3 hPa 0,0 l/m 10,3 km/h (2 Bft) W 261 2 min 0,000 mm 3,5 UV-I 532 W/m 12,9 C 19,7 C 16,1 km/h (3 Bft) 96,15 %
01.08.2016 12:22 20,9 C 61 % 1017,3 hPa 0,0 l/m 7,2 km/h (2 Bft) NW 314 0 min 0,000 mm 3,4 UV-I 268 W/m 13,1 C 20,6 C 11,3 km/h (2 Bft) 95,24 %
01.08.2016 12:24 20,8 C 63 % 1017,3 hPa 0,0 l/m 9,0 km/h (2 Bft) SW 225 0 min 0,000 mm 4,5 UV-I 306 W/m 13,5 C 19,8 C 14,5 km/h (3 Bft) 100,00 %
01.08.2016 12:26 20,9 C 60 % 1017,3 hPa 0,0 l/m 8,2 km/h (2 Bft) W-SW 252 0 min 0,000 mm 4,3 UV-I 321 W/m 12,8 C 20,2 C 14,5 km/h (3 Bft) 96,43 %
01.08.2016 12:28 20,8 C 60 % 1017,3 hPa 0,0 l/m 5,6 km/h (1 Bft) W-SW 257 0 min 0,000 mm 4,1 UV-I 428 W/m 12,7 C 20,8 C 11,3 km/h (2 Bft) 97,37 %
01.08.2016 12:30 20,8 C 62 % 1017,2 hPa 0,0 l/m 5,8 km/h (2 Bft) W-NW 290 2 min 0,000 mm 4,9 UV-I 601 W/m 13,2 C 20,8 C 9,7 km/h (2 Bft) 98,11 %
01.08.2016 12:32 20,9 C 61 % 1017,3 hPa 0,0 l/m 6,5 km/h (2 Bft) SW 225 2 min 0,000 mm 5,1 UV-I 664 W/m 13,1 C 20,9 C 16,1 km/h (3 Bft) 93,62 %
01.08.2016 12:34 20,9 C 62 % 1017,3 hPa 0,0 l/m 6,3 km/h (2 Bft) W-SW 258 2 min 0,000 mm 4,9 UV-I 669 W/m 13,3 C 20,9 C 14,5 km/h (3 Bft) 97,87 %
01.08.2016 12:36 21,1 C 61 % 1017,3 hPa 0,0 l/m 7,1 km/h (2 Bft) W 268 2 min 0,000 mm 4,6 UV-I 715 W/m 13,3 C 20,8 C 14,5 km/h (3 Bft) 97,87 %
01.08.2016 12:38 21,1 C 60 % 1017,3 hPa 0,0 l/m 6,0 km/h (2 Bft) W-NW 300 2 min 0,000 mm 5,8 UV-I 715 W/m 13,0 C 21,1 C 9,7 km/h (2 Bft) 95,74 %
01.08.2016 12:40 21,2 C 59 % 1017,3 hPa 0,0 l/m 7,9 km/h (2 Bft) W-SW 241 2 min 0,000 mm 5,3 UV-I 736 W/m 12,9 C 20,6 C 12,9 km/h (3 Bft) 95,45 %
01.08.2016 12:42 21,2 C 62 % 1017,3 hPa 0,0 l/m 10,4 km/h (2 Bft) W-SW 254 2 min 0,000 mm 5,4 UV-I 803 W/m 13,6 C 19,8 C 20,9 km/h (4 Bft) 100,00 %
01.08.2016 12:44 21,2 C 60 % 1017,3 hPa 0,0 l/m 9,3 km/h (2 Bft) W 260 2 min 0,000 mm 4,5 UV-I 486 W/m 13,1 C 20,2 C 14,5 km/h (3 Bft) 94,74 %
01.08.2016 12:46 21,2 C 59 % 1017,3 hPa 0,0 l/m 13,2 km/h (3 Bft) SW 233 2 min 0,000 mm 4,4 UV-I 529 W/m 12,9 C 19,1 C 22,5 km/h (4 Bft) 98,00 %
01.08.2016 12:48 21,0 C 58 % 1017,3 hPa 0,0 l/m 14,0 km/h (3 Bft) W-SW 242 2 min 0,000 mm 4,3 UV-I 484 W/m 12,4 C 18,7 C 19,3 km/h (3 Bft) 100,00 %
01.08.2016 12:50 20,8 C 58 % 1017,3 hPa 0,0 l/m 14,5 km/h (3 Bft) W-SW 255 0 min 0,000 mm 4,2 UV-I 454 W/m 12,2 C 18,3 C 19,3 km/h (3 Bft) 96,00 %
01.08.2016 12:52 20,8 C 59 % 1017,3 hPa 0,0 l/m 11,9 km/h (2 Bft) W-SW 243 0 min 0,000 mm 5,2 UV-I 415 W/m 12,5 C 19,0 C 20,9 km/h (4 Bft) 100,00 %
01.08.2016 12:54 20,9 C 59 % 1017,3 hPa 0,0 l/m 9,0 km/h (2 Bft) W 271 2 min 0,000 mm 5,2 UV-I 525 W/m 12,6 C 20,0 C 16,1 km/h (3 Bft) 97,62 %
01.08.2016 12:56 20,9 C 61 % 1017,3 hPa 0,0 l/m 8,2 km/h (2 Bft) W 263 2 min 0,000 mm 4,8 UV-I 526 W/m 13,1 C 20,2 C 14,5 km/h (3 Bft) 100,00 %
01.08.2016 12:58 20,9 C 59 % 1017,3 hPa 0,0 l/m 7,6 km/h (2 Bft) W-SW 240 2 min 0,000 mm 5,4 UV-I 570 W/m 12,6 C 20,4 C 12,9 km/h (3 Bft) 100,00 %
01.08.2016 13:00 21,1 C 60 % 1017,2 hPa 0,0 l/m 8,0 km/h (2 Bft) SW 227 2 min 0,406 mm 5,9 UV-I 818 W/m 13,0 C 20,5 C 19,3 km/h (3 Bft) 100,00 %
01.08.2016 13:02 21,3 C 57 % 1017,3 hPa 0,0 l/m 14,5 km/h (3 Bft) W-SW 240 2 min 0,000 mm 5,7 UV-I 837 W/m 12,4 C 18,9 C 30,6 km/h (5 Bft) 100,00 %
01.08.2016 13:04 21,4 C 59 % 1017,3 hPa 0,0 l/m 9,4 km/h (2 Bft) SW 233 2 min 0,000 mm 5,3 UV-I 731 W/m 13,0 C 20,4 C 16,1 km/h (3 Bft) 100,00 %
01.08.2016 13:06 21,3 C 58 % 1017,2 hPa 0,0 l/m 6,7 km/h (2 Bft) W 260 2 min 0,000 mm 5,1 UV-I 657 W/m 12,7 C 21,2 C 14,5 km/h (3 Bft) 100,00 %
01.08.2016 13:08 21,2 C 57 % 1017,2 hPa 0,0 l/m 6,9 km/h (2 Bft) W-SW 237 2 min 0,000 mm 5,2 UV-I 689 W/m 12,3 C 21,0 C 12,9 km/h (3 Bft) 100,00 %
01.08.2016 13:10 21,2 C 59 % 1017,2 hPa 0,0 l/m 6,7 km/h (2 Bft) SW 225 2 min 0,000 mm 5,7 UV-I 728 W/m 12,9 C 21,1 C 16,1 km/h (3 Bft) 100,00 %
01.08.2016 13:12 21,3 C 60 % 1017,2 hPa 0,0 l/m 9,0 km/h (2 Bft) W 280 2 min 0,000 mm 5,5 UV-I 644 W/m 13,2 C 20,4 C 14,5 km/h (3 Bft) 100,00 %
01.08.2016 13:14 21,4 C 58 % 1017,2 hPa 0,0 l/m 8,0 km/h (2 Bft) W-SW 245 2 min 0,000 mm 5,6 UV-I 868 W/m 12,8 C 20,8 C 19,3 km/h (3 Bft) 92,31 %
01.08.2016 13:16 21,4 C 57 % 1017,3 hPa 0,0 l/m 5,7 km/h (1 Bft) S-SW 211 2 min 0,000 mm 4,5 UV-I 640 W/m 12,5 C 21,4 C 14,5 km/h (3 Bft) 100,00 %
01.08.2016 13:18 21,3 C 58 % 1017,3 hPa 0,0 l/m 6,3 km/h (2 Bft) W-NW 295 0 min 0,000 mm 5,3 UV-I 311 W/m 12,7 C 21,3 C 12,9 km/h (3 Bft) 97,37 %
01.08.2016 13:20 21,4 C 57 % 1017,2 hPa 0,0 l/m 3,4 km/h (1 Bft) W-NW 296 2 min 0,000 mm 5,4 UV-I 775 W/m 12,5 C 21,4 C 6,4 km/h (2 Bft) 100,00 %
01.08.2016 13:22 21,5 C 55 % 1017,2 hPa 0,0 l/m 5,1 km/h (1 Bft) W 271 2 min 0,000 mm 5,3 UV-I 661 W/m 12,1 C 21,5 C 12,9 km/h (3 Bft) 100,00 %
01.08.2016 13:24 21,5 C 54 % 1017,2 hPa 0,0 l/m 7,0 km/h (2 Bft) N 360 2 min 0,000 mm 5,8 UV-I 817 W/m 11,8 C 21,3 C 14,5 km/h (3 Bft) 97,73 %
01.08.2016 13:26 21,7 C 56 % 1017,2 hPa 0,0 l/m 10,8 km/h (2 Bft) SW 218 2 min 0,000 mm 5,9 UV-I 878 W/m 12,5 C 20,3 C 17,7 km/h (3 Bft) 98,21 %
01.08.2016 13:28 21,8 C 56 % 1017,2 hPa 0,0 l/m 9,5 km/h (2 Bft) W-SW 242 2 min 0,000 mm 5,8 UV-I 735 W/m 12,6 C 20,8 C 20,9 km/h (4 Bft) 100,00 %
01.08.2016 13:30 22,0 C 55 % 1017,2 hPa 0,0 l/m 17,1 km/h (3 Bft) SW 235 2 min 0,000 mm 4,4 UV-I 891 W/m 12,5 C 19,3 C 24,1 km/h (4 Bft) 100,00 %
01.08.2016 13:32 21,9 C 55 % 1017,2 hPa 0,0 l/m 11,9 km/h (2 Bft) W-SW 256 2 min 0,000 mm 5,9 UV-I 872 W/m 12,4 C 20,2 C 19,3 km/h (3 Bft) 100,00 %
01.08.2016 13:34 21,9 C 54 % 1017,2 hPa 0,0 l/m 12,8 km/h (3 Bft) W 259 2 min 0,000 mm 5,8 UV-I 896 W/m 12,2 C 20,0 C 17,7 km/h (3 Bft) 100,00 %
01.08.2016 13:36 21,8 C 54 % 1017,1 hPa 0,0 l/m 11,4 km/h (2 Bft) W-SW 258 2 min 0,000 mm 5,2 UV-I 787 W/m 12,1 C 20,3 C 14,5 km/h (3 Bft) 100,00 %
01.08.2016 13:38 21,8 C 55 % 1017,1 hPa 0,0 l/m 9,8 km/h (2 Bft) W 261 2 min 0,000 mm 5,6 UV-I 800 W/m 12,4 C 20,7 C 17,7 km/h (3 Bft) 100,00 %
01.08.2016 13:40 22,0 C 54 % 1017,1 hPa 0,0 l/m 9,9 km/h (2 Bft) S 183 2 min 0,000 mm 6,1 UV-I 906 W/m 12,3 C 20,9 C 22,5 km/h (4 Bft) 100,00 %
01.08.2016 13:42 22,0 C 52 % 1017,1 hPa 0,0 l/m 10,7 km/h (2 Bft) S 182 2 min 0,000 mm 6,2 UV-I 934 W/m 11,7 C 20,7 C 20,9 km/h (4 Bft) 98,11 %
01.08.2016 13:44 22,1 C 55 % 1017,1 hPa 0,0 l/m 13,0 km/h (3 Bft) W-SW 240 2 min 0,000 mm 6,0 UV-I 894 W/m 12,6 C 20,2 C 17,7 km/h (3 Bft) 100,00 %
01.08.2016 13:46 22,3 C 50 % 1017,1 hPa 0,0 l/m 15,5 km/h (3 Bft) W 261 2 min 0,000 mm 5,9 UV-I 860 W/m 11,4 C 19,9 C 22,5 km/h (4 Bft) 100,00 %
01.08.2016 13:48 22,2 C 51 % 1017,0 hPa 0,0 l/m 5,9 km/h (2 Bft) W-NW 299 2 min 0,000 mm 5,8 UV-I 933 W/m 11,6 C 22,2 C 14,5 km/h (3 Bft) 97,87 %
01.08.2016 13:50 22,4 C 54 % 1017,1 hPa 0,0 l/m 5,2 km/h (1 Bft) W 265 2 min 0,000 mm 6,0 UV-I 945 W/m 12,6 C 22,4 C 11,3 km/h (2 Bft) 100,00 %
01.08.2016 13:52 22,6 C 55 % 1017,1 hPa 0,0 l/m 5,7 km/h (1 Bft) S-SW 212 2 min 0,000 mm 5,8 UV-I 907 W/m 13,1 C 22,6 C 11,3 km/h (2 Bft) 100,00 %
01.08.2016 13:54 22,6 C 51 % 1017,1 hPa 0,0 l/m 17,5 km/h (3 Bft) W-NW 294 2 min 0,000 mm 4,1 UV-I 549 W/m 11,9 C 20,0 C 25,7 km/h (4 Bft) 100,00 %
01.08.2016 13:56 22,5 C 52 % 1017,1 hPa 0,0 l/m 14,2 km/h (3 Bft) W 268 2 min 0,000 mm 6,1 UV-I 733 W/m 12,1 C 20,4 C 24,1 km/h (4 Bft) 100,00 %
01.08.2016 13:58 22,6 C 53 % 1017,1 hPa 0,0 l/m 7,7 km/h (2 Bft) W-NW 288 2 min 0,000 mm 6,3 UV-I 884 W/m 12,5 C 22,2 C 14,5 km/h (3 Bft) 98,00 %
01.08.2016 14:00 22,4 C 54 % 1017,0 hPa 0,0 l/m 2,8 km/h (1 Bft) W 269 2 min 0,533 mm 6,1 UV-I 894 W/m 12,6 C 22,4 C 6,4 km/h (2 Bft) 100,00 %
01.08.2016 14:02 22,4 C 53 % 1017,1 hPa 0,0 l/m 10,4 km/h (2 Bft) W 273 2 min 0,000 mm 5,6 UV-I 854 W/m 12,3 C 21,2 C 14,5 km/h (3 Bft) 97,87 %
01.08.2016 14:04 22,4 C 55 % 1017,1 hPa 0,0 l/m 8,3 km/h (2 Bft) W-NW 286 2 min 0,000 mm 6,0 UV-I 885 W/m 12,9 C 21,8 C 12,9 km/h (3 Bft) 94,34 %
01.08.2016 14:06 22,6 C 52 % 1017,1 hPa 0,0 l/m 15,6 km/h (3 Bft) W-SW 239 2 min 0,000 mm 6,0 UV-I 888 W/m 12,2 C 20,3 C 22,5 km/h (4 Bft) 100,00 %
01.08.2016 14:08 22,5 C 50 % 1017,1 hPa 0,0 l/m 14,0 km/h (3 Bft) W 280 2 min 0,000 mm 5,7 UV-I 858 W/m 11,5 C 20,5 C 20,9 km/h (4 Bft) 96,23 %
01.08.2016 14:10 22,4 C 53 % 1017,1 hPa 0,0 l/m 11,1 km/h (2 Bft) W 261 2 min 0,000 mm 6,2 UV-I 892 W/m 12,3 C 21,0 C 24,1 km/h (4 Bft) 97,37 %
01.08.2016 14:12 22,4 C 53 % 1017,1 hPa 0,0 l/m 12,5 km/h (3 Bft) W-SW 248 2 min 0,000 mm 6,2 UV-I 959 W/m 12,3 C 20,7 C 22,5 km/h (4 Bft) 98,21 %
01.08.2016 14:14 22,4 C 54 % 1017,1 hPa 0,0 l/m 8,6 km/h (2 Bft) W-NW 287 2 min 0,000 mm 5,6 UV-I 986 W/m 12,6 C 21,7 C 17,7 km/h (3 Bft) 97,87 %
01.08.2016 14:16 22,3 C 53 % 1017,1 hPa 0,0 l/m 8,0 km/h (2 Bft) S-SW 195 0 min 0,000 mm 3,6 UV-I 368 W/m 12,2 C 21,8 C 14,5 km/h (3 Bft) 97,22 %
01.08.2016 14:18 22,3 C 56 % 1017,0 hPa 0,0 l/m 8,3 km/h (2 Bft) W 259 0 min 0,000 mm 3,2 UV-I 295 W/m 13,1 C 21,7 C 12,9 km/h (3 Bft) 96,43 %
01.08.2016 14:20 22,2 C 54 % 1017,1 hPa 0,0 l/m 8,3 km/h (2 Bft) NW 313 0 min 0,000 mm 2,8 UV-I 280 W/m 12,4 C 21,6 C 16,1 km/h (3 Bft) 97,56 %
01.08.2016 14:22 22,0 C 53 % 1017,0 hPa 0,0 l/m 9,1 km/h (2 Bft) W-NW 287 0 min 0,000 mm 2,3 UV-I 265 W/m 12,0 C 21,1 C 17,7 km/h (3 Bft) 98,00 %
01.08.2016 14:24 21,8 C 52 % 1017,1 hPa 0,0 l/m 7,0 km/h (2 Bft) W 270 0 min 0,000 mm 2,1 UV-I 266 W/m 11,5 C 21,6 C 16,1 km/h (3 Bft) 97,56 %
01.08.2016 14:26 21,7 C 54 % 1017,0 hPa 0,0 l/m 5,9 km/h (2 Bft) N-NW 331 0 min 0,000 mm 2,0 UV-I 266 W/m 12,0 C 21,7 C 11,3 km/h (2 Bft) 96,23 %
01.08.2016 14:28 21,6 C 53 % 1017,0 hPa 0,0 l/m 11,3 km/h (2 Bft) W-NW 290 0 min 0,000 mm 2,2 UV-I 299 W/m 11,6 C 20,1 C 19,3 km/h (3 Bft) 98,00 %
01.08.2016 14:30 21,6 C 54 % 1017,1 hPa 0,0 l/m 7,0 km/h (2 Bft) W 280 0 min 0,000 mm 3,0 UV-I 357 W/m 11,9 C 21,4 C 14,5 km/h (3 Bft) 97,37 %
01.08.2016 14:32 21,6 C 55 % 1017,0 hPa 0,0 l/m 6,6 km/h (2 Bft) W-NW 284 0 min 0,000 mm 2,9 UV-I 343 W/m 12,2 C 21,5 C 12,9 km/h (3 Bft) 96,43 %
01.08.2016 14:34 21,7 C 54 % 1017,0 hPa 0,0 l/m 7,6 km/h (2 Bft) W-SW 257 0 min 0,000 mm 4,1 UV-I 359 W/m 12,0 C 21,3 C 14,5 km/h (3 Bft) 97,14 %
01.08.2016 14:36 21,9 C 54 % 1017,0 hPa 0,0 l/m 2,4 km/h (1 Bft) W-SW 258 2 min 0,000 mm 4,1 UV-I 529 W/m 12,2 C 21,9 C 6,4 km/h (2 Bft) 100,00 %
01.08.2016 14:38 22,2 C 54 % 1017,0 hPa 0,0 l/m 5,5 km/h (1 Bft) W-SW 248 2 min 0,000 mm 5,7 UV-I 642 W/m 12,4 C 22,2 C 16,1 km/h (3 Bft) 100,00 %
01.08.2016 14:40 22,5 C 54 % 1017,0 hPa 0,0 l/m 4,8 km/h (1 Bft) N 9 2 min 0,000 mm 5,0 UV-I 948 W/m 12,7 C 22,5 C 9,7 km/h (2 Bft) 98,53 %
01.08.2016 14:42 22,6 C 54 % 1017,0 hPa 0,0 l/m 5,6 km/h (1 Bft) W 273 0 min 0,000 mm 3,9 UV-I 394 W/m 12,8 C 22,6 C 12,9 km/h (3 Bft) 100,00 %
01.08.2016 14:44 22,4 C 54 % 1017,0 hPa 0,0 l/m 6,0 km/h (2 Bft) W-SW 250 2 min 0,000 mm 3,7 UV-I 747 W/m 12,6 C 22,4 C 12,9 km/h (3 Bft) 97,37 %
01.08.2016 14:46 22,3 C 54 % 1017,0 hPa 0,0 l/m 6,4 km/h (2 Bft) W-NW 283 0 min 0,000 mm 3,2 UV-I 344 W/m 12,5 C 22,3 C 11,3 km/h (2 Bft) 100,00 %
01.08.2016 14:48 22,2 C 55 % 1017,1 hPa 0,0 l/m 5,9 km/h (2 Bft) W-SW 244 0 min 0,000 mm 3,0 UV-I 277 W/m 12,7 C 22,2 C 11,3 km/h (2 Bft) 100,00 %
01.08.2016 14:50 21,9 C 55 % 1017,1 hPa 0,0 l/m 3,6 km/h (1 Bft) SO 138 0 min 0,000 mm 3,1 UV-I 255 W/m 12,4 C 21,9 C 8,0 km/h (2 Bft) 100,00 %
01.08.2016 14:52 21,9 C 58 % 1017,1 hPa 0,0 l/m 5,4 km/h (1 Bft) NW 325 0 min 0,000 mm 4,2 UV-I 255 W/m 13,3 C 21,9 C 12,9 km/h (3 Bft) 100,00 %
01.08.2016 14:54 22,1 C 55 % 1017,1 hPa 0,0 l/m 5,9 km/h (2 Bft) W 273 2 min 0,000 mm 4,5 UV-I 622 W/m 12,6 C 22,1 C 11,3 km/h (2 Bft) 100,00 %
01.08.2016 14:56 22,2 C 54 % 1017,1 hPa 0,0 l/m 3,5 km/h (1 Bft) W 259 2 min 0,000 mm 4,7 UV-I 852 W/m 12,4 C 22,2 C 9,7 km/h (2 Bft) 100,00 %
01.08.2016 14:58 22,4 C 54 % 1017,1 hPa 0,0 l/m 7,8 km/h (2 Bft) W-SW 241 2 min 0,000 mm 5,3 UV-I 849 W/m 12,6 C 21,9 C 14,5 km/h (3 Bft) 100,00 %
01.08.2016 15:00 22,5 C 54 % 1017,1 hPa 0,0 l/m 11,5 km/h (2 Bft) W-SW 244 2 min 0,407 mm 5,0 UV-I 867 W/m 12,7 C 21,0 C 17,7 km/h (3 Bft) 98,00 %
01.08.2016 15:02 22,3 C 52 % 1017,1 hPa 0,0 l/m 9,2 km/h (2 Bft) W 279 0 min 0,000 mm 3,5 UV-I 364 W/m 12,0 C 21,4 C 14,5 km/h (3 Bft) 100,00 %
01.08.2016 15:04 22,1 C 54 % 1017,1 hPa 0,0 l/m 8,0 km/h (2 Bft) W 265 0 min 0,000 mm 3,7 UV-I 235 W/m 12,3 C 21,6 C 16,1 km/h (3 Bft) 100,00 %
01.08.2016 15:06 22,0 C 52 % 1017,1 hPa 0,0 l/m 10,0 km/h (2 Bft) W 265 0 min 0,000 mm 4,6 UV-I 241 W/m 11,7 C 20,8 C 14,5 km/h (3 Bft) 100,00 %
01.08.2016 15:08 22,1 C 54 % 1017,1 hPa 0,0 l/m 12,7 km/h (3 Bft) W-SW 246 0 min 0,000 mm 3,8 UV-I 306 W/m 12,3 C 20,3 C 19,3 km/h (3 Bft) 100,00 %
01.08.2016 15:10 22,0 C 52 % 1017,1 hPa 0,0 l/m 11,1 km/h (2 Bft) SW 231 0 min 0,000 mm 3,7 UV-I 313 W/m 11,7 C 20,6 C 16,1 km/h (3 Bft) 100,00 %
01.08.2016 15:12 21,9 C 53 % 1017,0 hPa 0,0 l/m 5,5 km/h (1 Bft) W-SW 255 0 min 0,000 mm 3,4 UV-I 263 W/m 11,9 C 21,9 C 11,3 km/h (2 Bft) 100,00 %
01.08.2016 15:14 22,1 C 56 % 1017,0 hPa 0,0 l/m 2,5 km/h (1 Bft) W-SW 250 0 min 0,000 mm 3,9 UV-I 267 W/m 12,9 C 22,1 C 6,4 km/h (2 Bft) 97,87 %
01.08.2016 15:16 22,4 C 54 % 1017,0 hPa 0,0 l/m 7,0 km/h (2 Bft) W-SW 246 2 min 0,000 mm 4,4 UV-I 822 W/m 12,6 C 22,2 C 17,7 km/h (3 Bft) 100,00 %
01.08.2016 15:18 22,6 C 52 % 1017,0 hPa 0,0 l/m 13,7 km/h (3 Bft) W-SW 242 2 min 0,000 mm 3,4 UV-I 833 W/m 12,2 C 20,7 C 19,3 km/h (3 Bft) 100,00 %
01.08.2016 15:20 22,4 C 51 % 1017,0 hPa 0,0 l/m 6,8 km/h (2 Bft) W-SW 250 0 min 0,000 mm 2,8 UV-I 242 W/m 11,8 C 22,3 C 14,5 km/h (3 Bft) 98,00 %
01.08.2016 15:22 22,3 C 53 % 1017,1 hPa 0,0 l/m 1,6 km/h (1 Bft) W-SW 250 0 min 0,000 mm 2,5 UV-I 206 W/m 12,2 C 22,3 C 6,4 km/h (2 Bft) 100,00 %
01.08.2016 15:24 22,1 C 53 % 1017,0 hPa 0,0 l/m 5,8 km/h (2 Bft) W 260 0 min 0,000 mm 2,3 UV-I 187 W/m 12,1 C 22,1 C 9,7 km/h (2 Bft) 100,00 %
01.08.2016 15:26 21,9 C 52 % 1017,0 hPa 0,0 l/m 4,6 km/h (1 Bft) W 271 0 min 0,000 mm 2,1 UV-I 187 W/m 11,6 C 21,9 C 9,7 km/h (2 Bft) 97,56 %
01.08.2016 15:28 21,8 C 52 % 1017,0 hPa 0,0 l/m 3,7 km/h (1 Bft) W-SW 238 0 min 0,000 mm 2,1 UV-I 207 W/m 11,5 C 21,8 C 6,4 km/h (2 Bft) 100,00 %
01.08.2016 15:30 21,7 C 55 % 1017,0 hPa 0,0 l/m 3,5 km/h (1 Bft) W-NW 286 0 min 0,000 mm 2,8 UV-I 220 W/m 12,3 C 21,7 C 6,4 km/h (2 Bft) 100,00 %
01.08.2016 15:32 21,8 C 56 % 1017,0 hPa 0,0 l/m 7,1 km/h (2 Bft) W-SW 248 0 min 0,000 mm 2,2 UV-I 298 W/m 12,6 C 21,6 C 16,1 km/h (3 Bft) 100,00 %
01.08.2016 15:34 21,9 C 53 % 1017,0 hPa 0,0 l/m 8,6 km/h (2 Bft) W-SW 254 0 min 0,000 mm 2,6 UV-I 286 W/m 11,9 C 21,2 C 16,1 km/h (3 Bft) 100,00 %
01.08.2016 15:36 21,9 C 52 % 1017,0 hPa 0,0 l/m 8,8 km/h (2 Bft) W 267 0 min 0,000 mm 1,8 UV-I 242 W/m 11,6 C 21,1 C 16,1 km/h (3 Bft) 100,00 %
01.08.2016 15:38 21,9 C 52 % 1017,0 hPa 0,0 l/m 5,5 km/h (1 Bft) W 281 0 min 0,000 mm 1,7 UV-I 224 W/m 11,6 C 21,9 C 11,3 km/h (2 Bft) 100,00 %
01.08.2016 15:40 21,9 C 54 % 1016,9 hPa 0,0 l/m 4,2 km/h (1 Bft) W-SW 241 0 min 0,000 mm 1,6 UV-I 232 W/m 12,2 C 21,9 C 8,0 km/h (2 Bft) 100,00 %
01.08.2016 15:42 21,9 C 55 % 1016,9 hPa 0,0 l/m 6,3 km/h (2 Bft) W 260 0 min 0,000 mm 1,8 UV-I 255 W/m 12,4 C 21,9 C 14,5 km/h (3 Bft) 100,00 %
01.08.2016 15:44 22,1 C 55 % 1016,9 hPa 0,0 l/m 5,2 km/h (1 Bft) NW 320 0 min 0,000 mm 2,7 UV-I 267 W/m 12,6 C 22,1 C 9,7 km/h (2 Bft) 100,00 %
01.08.2016 15:46 22,3 C 52 % 1016,9 hPa 0,0 l/m 4,6 km/h (1 Bft) W-NW 285 2 min 0,000 mm 3,9 UV-I 676 W/m 12,0 C 22,3 C 11,3 km/h (2 Bft) 100,00 %
01.08.2016 15:48 22,7 C 53 % 1016,9 hPa 0,0 l/m 3,9 km/h (1 Bft) W 267 2 min 0,000 mm 4,0 UV-I 864 W/m 12,6 C 22,7 C 6,4 km/h (2 Bft) 100,00 %
01.08.2016 15:50 23,1 C 51 % 1016,8 hPa 0,0 l/m 4,4 km/h (1 Bft) W-SW 241 2 min 0,000 mm 3,9 UV-I 812 W/m 12,4 C 23,1 C 11,3 km/h (2 Bft) 100,00 %
01.08.2016 15:52 23,2 C 51 % 1016,8 hPa 0,0 l/m 7,4 km/h (2 Bft) W-SW 237 2 min 0,000 mm 3,0 UV-I 673 W/m 12,5 C 22,9 C 14,5 km/h (3 Bft) 100,00 %
01.08.2016 15:54 22,9 C 51 % 1016,9 hPa 0,0 l/m 5,7 km/h (1 Bft) W 259 0 min 0,000 mm 2,2 UV-I 222 W/m 12,2 C 22,9 C 14,5 km/h (3 Bft) 100,00 %
01.08.2016 15:56 22,6 C 52 % 1016,9 hPa 0,0 l/m 3,3 km/h (1 Bft) W 267 0 min 0,000 mm 2,1 UV-I 207 W/m 12,2 C 22,6 C 6,4 km/h (2 Bft) 100,00 %
01.08.2016 15:58 22,3 C 53 % 1016,9 hPa 0,0 l/m 3,1 km/h (1 Bft) W 267 0 min 0,000 mm 2,0 UV-I 197 W/m 12,2 C 22,3 C 6,4 km/h (2 Bft) 97,87 %
01.08.2016 16:00 22,1 C 52 % 1016,9 hPa 0,0 l/m 7,0 km/h (2 Bft) W-SW 244 0 min 0,279 mm 2,0 UV-I 208 W/m 11,8 C 21,9 C 12,9 km/h (3 Bft) 97,87 %
01.08.2016 16:02 21,9 C 53 % 1016,9 hPa 0,0 l/m 6,4 km/h (2 Bft) W 267 0 min 0,000 mm 2,1 UV-I 210 W/m 11,9 C 21,9 C 14,5 km/h (3 Bft) 96,23 %
01.08.2016 16:04 21,9 C 55 % 1016,9 hPa 0,0 l/m 6,4 km/h (2 Bft) W-SW 246 0 min 0,000 mm 2,7 UV-I 229 W/m 12,4 C 21,9 C 12,9 km/h (3 Bft) 97,73 %
01.08.2016 16:06 22,2 C 54 % 1016,9 hPa 0,0 l/m 5,8 km/h (2 Bft) W 268 2 min 0,000 mm 3,4 UV-I 665 W/m 12,4 C 22,2 C 11,3 km/h (2 Bft) 92,31 %
01.08.2016 16:08 22,6 C 51 % 1016,8 hPa 0,0 l/m 6,5 km/h (2 Bft) SW 236 2 min 0,000 mm 3,4 UV-I 742 W/m 11,9 C 22,6 C 17,7 km/h (3 Bft) 96,43 %
01.08.2016 16:10 23,1 C 50 % 1016,9 hPa 0,0 l/m 3,8 km/h (1 Bft) S-SW 205 2 min 0,000 mm 3,4 UV-I 745 W/m 12,1 C 23,1 C 8,0 km/h (2 Bft) 97,44 %
01.08.2016 16:12 23,3 C 49 % 1016,9 hPa 0,0 l/m 5,4 km/h (1 Bft) W-NW 285 2 min 0,000 mm 3,4 UV-I 729 W/m 12,0 C 23,3 C 14,5 km/h (3 Bft) 97,87 %
01.08.2016 16:14 23,3 C 50 % 1016,9 hPa 0,0 l/m 6,7 km/h (2 Bft) W-NW 288 2 min 0,000 mm 3,3 UV-I 723 W/m 12,3 C 23,2 C 16,1 km/h (3 Bft) 98,00 %
01.08.2016 16:16 23,3 C 47 % 1016,9 hPa 0,0 l/m 7,9 km/h (2 Bft) W 269 2 min 0,000 mm 3,3 UV-I 721 W/m 11,3 C 22,8 C 14,5 km/h (3 Bft) 98,08 %
01.08.2016 16:18 23,3 C 46 % 1016,9 hPa 0,0 l/m 10,1 km/h (2 Bft) W 276 2 min 0,000 mm 3,2 UV-I 714 W/m 11,0 C 22,3 C 19,3 km/h (3 Bft) 97,62 %
01.08.2016 16:20 23,4 C 47 % 1016,9 hPa 0,0 l/m 4,2 km/h (1 Bft) NW 304 2 min 0,000 mm 2,9 UV-I 610 W/m 11,4 C 23,4 C 9,7 km/h (2 Bft) 98,00 %
01.08.2016 16:22 23,6 C 48 % 1016,9 hPa 0,0 l/m 7,1 km/h (2 Bft) NO 49 2 min 0,000 mm 3,0 UV-I 590 W/m 11,9 C 23,4 C 16,1 km/h (3 Bft) 97,87 %
01.08.2016 16:24 23,5 C 46 % 1016,9 hPa 0,0 l/m 6,1 km/h (2 Bft) SW 232 2 min 0,000 mm 2,6 UV-I 658 W/m 11,2 C 23,5 C 12,9 km/h (3 Bft) 92,68 %
01.08.2016 16:26 23,3 C 48 % 1016,9 hPa 0,0 l/m 8,2 km/h (2 Bft) W-SW 258 0 min 0,000 mm 2,1 UV-I 246 W/m 11,7 C 22,8 C 19,3 km/h (3 Bft) 96,00 %
01.08.2016 16:28 23,0 C 47 % 1016,9 hPa 0,0 l/m 11,6 km/h (2 Bft) W-SW 238 0 min 0,000 mm 2,2 UV-I 274 W/m 11,1 C 21,6 C 22,5 km/h (4 Bft) 97,87 %
01.08.2016 16:30 22,7 C 47 % 1017,0 hPa 0,0 l/m 6,3 km/h (2 Bft) W-SW 246 2 min 0,000 mm 2,4 UV-I 420 W/m 10,8 C 22,7 C 12,9 km/h (3 Bft) 97,56 %
01.08.2016 16:32 22,7 C 50 % 1017,0 hPa 0,0 l/m 7,4 km/h (2 Bft) W-SW 239 2 min 0,000 mm 2,7 UV-I 589 W/m 11,7 C 22,4 C 16,1 km/h (3 Bft) 100,00 %
01.08.2016 16:34 22,8 C 50 % 1016,9 hPa 0,0 l/m 13,9 km/h (3 Bft) W-SW 250 2 min 0,000 mm 2,5 UV-I 550 W/m 11,8 C 20,9 C 20,9 km/h (4 Bft) 100,00 %
01.08.2016 16:36 22,8 C 49 % 1016,9 hPa 0,0 l/m 8,3 km/h (2 Bft) W-SW 250 2 min 0,000 mm 2,5 UV-I 481 W/m 11,5 C 22,2 C 14,5 km/h (3 Bft) 100,00 %
01.08.2016 16:38 22,8 C 50 % 1016,9 hPa 0,0 l/m 11,3 km/h (2 Bft) W-SW 258 2 min 0,000 mm 2,6 UV-I 552 W/m 11,8 C 21,4 C 19,3 km/h (3 Bft) 97,37 %
01.08.2016 16:40 23,0 C 51 % 1016,9 hPa 0,0 l/m 13,1 km/h (3 Bft) S-SW 206 2 min 0,000 mm 2,6 UV-I 556 W/m 12,3 C 21,3 C 24,1 km/h (4 Bft) 98,11 %
01.08.2016 16:42 23,0 C 48 % 1016,9 hPa 0,0 l/m 12,5 km/h (3 Bft) W-SW 252 2 min 0,000 mm 2,5 UV-I 518 W/m 11,4 C 21,4 C 22,5 km/h (4 Bft) 100,00 %
01.08.2016 16:44 22,8 C 49 % 1016,9 hPa 0,0 l/m 13,4 km/h (3 Bft) W 267 2 min 0,000 mm 2,5 UV-I 537 W/m 11,5 C 21,0 C 20,9 km/h (4 Bft) 98,57 %
01.08.2016 16:46 22,9 C 53 % 1016,9 hPa 0,0 l/m 6,8 km/h (2 Bft) W-SW 252 2 min 0,000 mm 2,6 UV-I 595 W/m 12,8 C 22,8 C 12,9 km/h (3 Bft) 100,00 %
01.08.2016 16:48 23,0 C 50 % 1016,9 hPa 0,0 l/m 6,4 km/h (2 Bft) W 265 2 min 0,000 mm 2,5 UV-I 591 W/m 12,0 C 23,0 C 16,1 km/h (3 Bft) 100,00 %
01.08.2016 16:50 23,1 C 48 % 1016,8 hPa 0,0 l/m 6,1 km/h (2 Bft) N 355 2 min 0,000 mm 2,5 UV-I 578 W/m 11,5 C 23,1 C 12,9 km/h (3 Bft) 100,00 %
01.08.2016 16:52 23,2 C 49 % 1016,8 hPa 0,0 l/m 4,3 km/h (1 Bft) W-SW 251 2 min 0,000 mm 2,4 UV-I 567 W/m 11,9 C 23,2 C 11,3 km/h (2 Bft) 100,00 %
01.08.2016 16:54 23,2 C 48 % 1016,8 hPa 0,0 l/m 8,2 km/h (2 Bft) W-SW 240 2 min 0,000 mm 2,3 UV-I 552 W/m 11,6 C 22,7 C 16,1 km/h (3 Bft) 100,00 %
01.08.2016 16:56 23,3 C 49 % 1016,8 hPa 0,0 l/m 8,1 km/h (2 Bft) NW 316 2 min 0,000 mm 2,3 UV-I 556 W/m 12,0 C 22,8 C 14,5 km/h (3 Bft) 100,00 %
01.08.2016 16:58 23,3 C 51 % 1016,8 hPa 0,0 l/m 4,8 km/h (1 Bft) W 275 2 min 0,000 mm 2,3 UV-I 553 W/m 12,6 C 23,3 C 11,3 km/h (2 Bft) 100,00 %
01.08.2016 17:00 23,4 C 49 % 1016,8 hPa 0,0 l/m 6,0 km/h (2 Bft) SW 236 2 min 0,407 mm 2,2 UV-I 541 W/m 12,1 C 23,4 C 12,9 km/h (3 Bft) 100,00 %
01.08.2016 17:02 23,3 C 48 % 1016,9 hPa 0,0 l/m 9,5 km/h (2 Bft) SW 235 2 min 0,000 mm 2,2 UV-I 532 W/m 11,7 C 22,4 C 19,3 km/h (3 Bft) 100,00 %
01.08.2016 17:04 23,2 C 48 % 1016,8 hPa 0,0 l/m 7,8 km/h (2 Bft) W-SW 242 2 min 0,000 mm 2,1 UV-I 527 W/m 11,6 C 22,8 C 14,5 km/h (3 Bft) 100,00 %
01.08.2016 17:06 23,2 C 48 % 1016,8 hPa 0,0 l/m 10,3 km/h (2 Bft) W 279 2 min 0,000 mm 2,1 UV-I 526 W/m 11,6 C 22,1 C 17,7 km/h (3 Bft) 100,00 %
01.08.2016 17:08 23,1 C 47 % 1016,8 hPa 0,0 l/m 6,7 km/h (2 Bft) W-SW 237 2 min 0,000 mm 2,0 UV-I 524 W/m 11,2 C 23,0 C 14,5 km/h (3 Bft) 100,00 %
01.08.2016 17:10 23,1 C 47 % 1016,9 hPa 0,0 l/m 16,5 km/h (3 Bft) W-SW 254 2 min 0,000 mm 2,0 UV-I 518 W/m 11,2 C 20,7 C 25,7 km/h (4 Bft) 97,87 %
01.08.2016 17:12 23,1 C 46 % 1016,9 hPa 0,0 l/m 12,0 km/h (2 Bft) W 268 2 min 0,000 mm 1,9 UV-I 518 W/m 10,8 C 21,6 C 20,9 km/h (4 Bft) 97,87 %
01.08.2016 17:14 23,1 C 47 % 1016,8 hPa 0,0 l/m 9,3 km/h (2 Bft) W-SW 252 2 min 0,000 mm 1,9 UV-I 519 W/m 11,2 C 22,2 C 12,9 km/h (3 Bft) 100,00 %
01.08.2016 17:16 23,1 C 47 % 1016,7 hPa 0,0 l/m 7,0 km/h (2 Bft) W 266 2 min 0,000 mm 1,8 UV-I 515 W/m 11,2 C 22,9 C 12,9 km/h (3 Bft) 100,00 %
01.08.2016 17:18 23,1 C 49 % 1016,8 hPa 0,0 l/m 4,3 km/h (1 Bft) W-SW 238 2 min 0,000 mm 1,8 UV-I 513 W/m 11,8 C 23,1 C 11,3 km/h (2 Bft) 100,00 %
01.08.2016 17:20 23,2 C 50 % 1016,8 hPa 0,0 l/m 7,4 km/h (2 Bft) N 360 2 min 0,000 mm 1,6 UV-I 517 W/m 12,2 C 22,9 C 16,1 km/h (3 Bft) 100,00 %
01.08.2016 17:22 22,9 C 47 % 1016,8 hPa 0,0 l/m 10,1 km/h (2 Bft) W 259 0 min 0,000 mm 1,3 UV-I 159 W/m 11,0 C 21,8 C 19,3 km/h (3 Bft) 100,00 %
01.08.2016 17:24 22,7 C 48 % 1016,8 hPa 0,0 l/m 11,5 km/h (2 Bft) W-SW 255 0 min 0,000 mm 1,2 UV-I 113 W/m 11,1 C 21,3 C 17,7 km/h (3 Bft) 100,00 %
01.08.2016 17:26 22,5 C 47 % 1016,8 hPa 0,0 l/m 12,2 km/h (2 Bft) W-SW 246 0 min 0,000 mm 1,1 UV-I 111 W/m 10,6 C 20,9 C 17,7 km/h (3 Bft) 100,00 %
01.08.2016 17:28 22,3 C 49 % 1016,8 hPa 0,0 l/m 10,8 km/h (2 Bft) W-SW 238 0 min 0,000 mm 1,1 UV-I 118 W/m 11,1 C 21,0 C 20,9 km/h (4 Bft) 100,00 %
01.08.2016 17:30 22,1 C 50 % 1016,8 hPa 0,0 l/m 12,2 km/h (2 Bft) W-SW 255 0 min 0,000 mm 1,1 UV-I 141 W/m 11,2 C 20,4 C 19,3 km/h (3 Bft) 100,00 %
01.08.2016 17:32 22,1 C 51 % 1016,8 hPa 0,0 l/m 8,7 km/h (2 Bft) W-SW 248 0 min 0,000 mm 1,1 UV-I 127 W/m 11,5 C 21,3 C 16,1 km/h (3 Bft) 100,00 %
01.08.2016 17:34 22,0 C 53 % 1016,7 hPa 0,0 l/m 5,7 km/h (1 Bft) W-SW 243 0 min 0,000 mm 1,3 UV-I 134 W/m 12,0 C 22,0 C 11,3 km/h (2 Bft) 100,00 %
01.08.2016 17:36 22,3 C 51 % 1016,7 hPa 0,0 l/m 6,4 km/h (2 Bft) W-SW 240 2 min 0,000 mm 1,4 UV-I 502 W/m 11,7 C 22,3 C 12,9 km/h (3 Bft) 95,74 %
01.08.2016 17:38 22,4 C 51 % 1016,7 hPa 0,0 l/m 7,6 km/h (2 Bft) W-SW 254 2 min 0,000 mm 1,3 UV-I 503 W/m 11,8 C 22,0 C 14,5 km/h (3 Bft) 100,00 %
01.08.2016 17:40 22,7 C 49 % 1016,7 hPa 0,0 l/m 11,0 km/h (2 Bft) W-SW 255 2 min 0,000 mm 1,3 UV-I 475 W/m 11,4 C 21,4 C 20,9 km/h (4 Bft) 100,00 %
01.08.2016 17:42 22,8 C 50 % 1016,7 hPa 0,0 l/m 7,7 km/h (2 Bft) W-SW 245 2 min 0,000 mm 1,3 UV-I 456 W/m 11,8 C 22,4 C 12,9 km/h (3 Bft) 98,00 %
01.08.2016 17:44 23,0 C 48 % 1016,7 hPa 0,0 l/m 9,3 km/h (2 Bft) W-SW 247 2 min 0,000 mm 1,3 UV-I 452 W/m 11,4 C 22,1 C 17,7 km/h (3 Bft) 100,00 %
01.08.2016 17:46 22,9 C 47 % 1016,7 hPa 0,0 l/m 10,6 km/h (2 Bft) W-SW 257 2 min 0,000 mm 1,2 UV-I 455 W/m 11,0 C 21,7 C 17,7 km/h (3 Bft) 100,00 %
01.08.2016 17:48 23,0 C 47 % 1016,7 hPa 0,0 l/m 9,5 km/h (2 Bft) N-NW 342 2 min 0,000 mm 1,2 UV-I 455 W/m 11,1 C 22,1 C 16,1 km/h (3 Bft) 98,46 %
01.08.2016 17:50 23,1 C 49 % 1016,7 hPa 0,0 l/m 8,4 km/h (2 Bft) W 264 2 min 0,000 mm 1,2 UV-I 451 W/m 11,8 C 22,5 C 16,1 km/h (3 Bft) 100,00 %
01.08.2016 17:52 23,1 C 46 % 1016,7 hPa 0,0 l/m 7,4 km/h (2 Bft) W-SW 254 2 min 0,000 mm 1,2 UV-I 431 W/m 10,8 C 22,8 C 12,9 km/h (3 Bft) 100,00 %
01.08.2016 17:54 23,2 C 48 % 1016,7 hPa 0,0 l/m 8,2 km/h (2 Bft) SW 236 2 min 0,000 mm 1,1 UV-I 409 W/m 11,6 C 22,7 C 12,9 km/h (3 Bft) 96,00 %
01.08.2016 17:56 23,2 C 47 % 1016,7 hPa 0,0 l/m 7,4 km/h (2 Bft) N-NW 338 2 min 0,000 mm 1,1 UV-I 392 W/m 11,3 C 22,9 C 14,5 km/h (3 Bft) 98,00 %
01.08.2016 17:58 23,1 C 48 % 1016,7 hPa 0,0 l/m 5,6 km/h (1 Bft) W 261 2 min 0,000 mm 0,9 UV-I 246 W/m 11,5 C 23,1 C 11,3 km/h (2 Bft) 97,56 %
01.08.2016 18:00 22,8 C 48 % 1016,7 hPa 0,0 l/m 5,1 km/h (1 Bft) W 263 0 min 0,304 mm 0,8 UV-I 75 W/m 11,2 C 22,8 C 9,7 km/h (2 Bft) 98,11 %
01.08.2016 18:02 22,6 C 48 % 1016,6 hPa 0,0 l/m 4,4 km/h (1 Bft) W-SW 239 0 min 0,000 mm 0,8 UV-I 90 W/m 11,0 C 22,6 C 6,4 km/h (2 Bft) 97,87 %
01.08.2016 18:04 22,5 C 49 % 1016,7 hPa 0,0 l/m 6,1 km/h (2 Bft) W 273 2 min 0,000 mm 0,9 UV-I 326 W/m 11,2 C 22,5 C 11,3 km/h (2 Bft) 97,44 %
01.08.2016 18:06 22,4 C 48 % 1016,6 hPa 0,0 l/m 5,6 km/h (1 Bft) W 267 0 min 0,000 mm 0,8 UV-I 128 W/m 10,8 C 22,4 C 9,7 km/h (2 Bft) 96,00 %
01.08.2016 18:08 22,3 C 50 % 1016,7 hPa 0,0 l/m 3,0 km/h (1 Bft) W-NW 285 0 min 0,000 mm 0,7 UV-I 116 W/m 11,4 C 22,3 C 4,8 km/h (1 Bft) 97,87 %
01.08.2016 18:10 22,3 C 50 % 1016,6 hPa 0,0 l/m 2,6 km/h (1 Bft) W-NW 289 2 min 0,000 mm 0,8 UV-I 242 W/m 11,4 C 22,3 C 4,8 km/h (1 Bft) 97,56 %
01.08.2016 18:12 22,5 C 50 % 1016,7 hPa 0,0 l/m 3,7 km/h (1 Bft) W-NW 284 2 min 0,000 mm 0,8 UV-I 393 W/m 11,5 C 22,5 C 6,4 km/h (2 Bft) 96,23 %
01.08.2016 18:14 22,6 C 50 % 1016,7 hPa 0,0 l/m 4,1 km/h (1 Bft) NW 316 2 min 0,000 mm 0,8 UV-I 397 W/m 11,6 C 22,6 C 9,7 km/h (2 Bft) 98,11 %
01.08.2016 18:16 22,8 C 49 % 1016,6 hPa 0,0 l/m 2,6 km/h (1 Bft) SW 228 2 min 0,000 mm 0,8 UV-I 369 W/m 11,5 C 22,8 C 6,4 km/h (2 Bft) 97,87 %
01.08.2016 18:18 22,9 C 50 % 1016,6 hPa 0,0 l/m 5,5 km/h (1 Bft) W-SW 250 2 min 0,000 mm 0,8 UV-I 331 W/m 11,9 C 22,9 C 14,5 km/h (3 Bft) 97,37 %
01.08.2016 18:20 22,9 C 45 % 1016,7 hPa 0,0 l/m 8,6 km/h (2 Bft) W-SW 238 2 min 0,000 mm 0,7 UV-I 316 W/m 10,3 C 22,2 C 20,9 km/h (4 Bft) 97,37 %
01.08.2016 18:22 22,8 C 46 % 1016,7 hPa 0,0 l/m 9,3 km/h (2 Bft) W-SW 238 2 min 0,000 mm 0,7 UV-I 304 W/m 10,6 C 21,9 C 17,7 km/h (3 Bft) 98,21 %
01.08.2016 18:24 22,8 C 46 % 1016,7 hPa 0,0 l/m 9,7 km/h (2 Bft) W 279 2 min 0,000 mm 0,7 UV-I 297 W/m 10,6 C 21,8 C 17,7 km/h (3 Bft) 94,34 %
01.08.2016 18:26 22,8 C 47 % 1016,7 hPa 0,0 l/m 6,2 km/h (2 Bft) SW 225 2 min 0,000 mm 0,7 UV-I 291 W/m 10,9 C 22,8 C 12,9 km/h (3 Bft) 100,00 %
01.08.2016 18:28 22,8 C 46 % 1016,6 hPa 0,0 l/m 7,3 km/h (2 Bft) W 275 2 min 0,000 mm 0,6 UV-I 283 W/m 10,6 C 22,5 C 11,3 km/h (2 Bft) 98,11 %
01.08.2016 18:30 22,8 C 47 % 1016,7 hPa 0,0 l/m 7,8 km/h (2 Bft) W-SW 242 2 min 0,000 mm 0,6 UV-I 277 W/m 10,9 C 22,4 C 11,3 km/h (2 Bft) 97,56 %
01.08.2016 18:32 22,8 C 46 % 1016,6 hPa 0,0 l/m 8,8 km/h (2 Bft) W-NW 284 2 min 0,000 mm 0,6 UV-I 273 W/m 10,6 C 22,1 C 16,1 km/h (3 Bft) 100,00 %
01.08.2016 18:34 22,7 C 48 % 1016,7 hPa 0,0 l/m 7,4 km/h (2 Bft) W-SW 243 2 min 0,000 mm 0,6 UV-I 268 W/m 11,1 C 22,4 C 17,7 km/h (3 Bft) 97,87 %
01.08.2016 18:36 22,7 C 46 % 1016,7 hPa 0,0 l/m 7,2 km/h (2 Bft) W 268 2 min 0,000 mm 0,5 UV-I 263 W/m 10,5 C 22,4 C 16,1 km/h (3 Bft) 100,00 %
01.08.2016 18:38 22,7 C 46 % 1016,7 hPa 0,0 l/m 6,7 km/h (2 Bft) W 278 2 min 0,000 mm 0,5 UV-I 259 W/m 10,5 C 22,6 C 14,5 km/h (3 Bft) 100,00 %
01.08.2016 18:40 22,6 C 48 % 1016,6 hPa 0,0 l/m 4,6 km/h (1 Bft) W-NW 287 2 min 0,000 mm 0,5 UV-I 184 W/m 11,0 C 22,6 C 9,7 km/h (2 Bft) 100,00 %
01.08.2016 18:42 22,5 C 47 % 1016,7 hPa 0,0 l/m 6,4 km/h (2 Bft) W-SW 257 2 min 0,000 mm 0,5 UV-I 173 W/m 10,6 C 22,5 C 11,3 km/h (2 Bft) 100,00 %
01.08.2016 18:44 22,4 C 47 % 1016,7 hPa 0,0 l/m 5,5 km/h (1 Bft) W-NW 284 2 min 0,000 mm 0,5 UV-I 220 W/m 10,5 C 22,4 C 9,7 km/h (2 Bft) 100,00 %
01.08.2016 18:46 22,3 C 49 % 1016,6 hPa 0,0 l/m 5,7 km/h (1 Bft) W-NW 285 2 min 0,000 mm 0,1 UV-I 166 W/m 11,1 C 22,3 C 11,3 km/h (2 Bft) 98,00 %
01.08.2016 18:48 22,2 C 48 % 1016,6 hPa 0,0 l/m 4,1 km/h (1 Bft) W-SW 247 0 min 0,000 mm 0,0 UV-I 73 W/m 10,7 C 22,2 C 8,0 km/h (2 Bft) 100,00 %
01.08.2016 18:50 22,1 C 49 % 1016,6 hPa 0,0 l/m 3,9 km/h (1 Bft) W 272 0 min 0,000 mm 0,0 UV-I 151 W/m 10,9 C 22,1 C 8,0 km/h (2 Bft) 97,56 %
01.08.2016 18:52 22,0 C 50 % 1016,6 hPa 0,0 l/m 4,1 km/h (1 Bft) W-SW 246 2 min 0,000 mm 0,0 UV-I 221 W/m 11,1 C 22,0 C 9,7 km/h (2 Bft) 100,00 %
01.08.2016 18:54 22,1 C 52 % 1016,7 hPa 0,0 l/m 6,7 km/h (2 Bft) W-SW 252 2 min 0,000 mm 0,0 UV-I 223 W/m 11,8 C 22,0 C 11,3 km/h (2 Bft) 100,00 %
01.08.2016 18:56 22,2 C 50 % 1016,6 hPa 0,0 l/m 6,2 km/h (2 Bft) W-SW 237 2 min 0,000 mm 0,0 UV-I 216 W/m 11,3 C 22,2 C 11,3 km/h (2 Bft) 100,00 %
01.08.2016 18:58 22,2 C 50 % 1016,6 hPa 0,0 l/m 4,0 km/h (1 Bft) W 259 2 min 0,000 mm 0,0 UV-I 196 W/m 11,3 C 22,2 C 6,4 km/h (2 Bft) 100,00 %
01.08.2016 19:00 22,3 C 50 % 1016,6 hPa 0,0 l/m 2,4 km/h (1 Bft) W-NW 282 2 min 0,000 mm 0,0 UV-I 186 W/m 11,4 C 22,3 C 6,4 km/h (2 Bft) 100,00 %
01.08.2016 19:02 22,3 C 49 % 1016,5 hPa 0,0 l/m 5,7 km/h (1 Bft) W-SW 255 2 min 0,204 mm 0,0 UV-I 178 W/m 11,1 C 22,3 C 11,3 km/h (2 Bft) 100,00 %
01.08.2016 19:04 22,3 C 50 % 1016,6 hPa 0,0 l/m 5,2 km/h (1 Bft) SW 232 2 min 0,000 mm 0,0 UV-I 173 W/m 11,4 C 22,3 C 8,0 km/h (2 Bft) 100,00 %
01.08.2016 19:06 22,3 C 48 % 1016,6 hPa 0,0 l/m 3,2 km/h (1 Bft) SW 230 2 min 0,000 mm 0,0 UV-I 168 W/m 10,8 C 22,3 C 6,4 km/h (2 Bft) 100,00 %
01.08.2016 19:08 22,3 C 49 % 1016,6 hPa 0,0 l/m 4,9 km/h (1 Bft) W-SW 248 2 min 0,000 mm 0,0 UV-I 163 W/m 11,1 C 22,3 C 8,0 km/h (2 Bft) 97,37 %
01.08.2016 19:10 22,2 C 51 % 1016,6 hPa 0,0 l/m 5,0 km/h (1 Bft) NW 323 2 min 0,000 mm 0,0 UV-I 157 W/m 11,6 C 22,2 C 12,9 km/h (3 Bft) 100,00 %
01.08.2016 19:12 22,2 C 50 % 1016,6 hPa 0,0 l/m 4,8 km/h (1 Bft) W-SW 247 2 min 0,000 mm 0,0 UV-I 150 W/m 11,3 C 22,2 C 8,0 km/h (2 Bft) 100,00 %
01.08.2016 19:14 22,2 C 49 % 1016,6 hPa 0,0 l/m 4,0 km/h (1 Bft) W-SW 248 2 min 0,000 mm 0,0 UV-I 143 W/m 11,0 C 22,2 C 11,3 km/h (2 Bft) 100,00 %
01.08.2016 19:16 22,1 C 51 % 1016,6 hPa 0,0 l/m 4,3 km/h (1 Bft) W-NW 296 2 min 0,000 mm 0,0 UV-I 135 W/m 11,5 C 22,1 C 6,4 km/h (2 Bft) 97,87 %
01.08.2016 19:18 22,1 C 50 % 1016,7 hPa 0,0 l/m 5,2 km/h (1 Bft) W-SW 251 2 min 0,000 mm 0,0 UV-I 127 W/m 11,2 C 22,1 C 8,0 km/h (2 Bft) 100,00 %
01.08.2016 19:20 22,0 C 50 % 1016,7 hPa 0,0 l/m 4,6 km/h (1 Bft) W-SW 249 2 min 0,000 mm 0,0 UV-I 122 W/m 11,1 C 22,0 C 9,7 km/h (2 Bft) 100,00 %
01.08.2016 19:22 21,9 C 50 % 1016,7 hPa 0,0 l/m 5,1 km/h (1 Bft) W 273 2 min 0,000 mm 0,0 UV-I 118 W/m 11,0 C 21,9 C 9,7 km/h (2 Bft) 100,00 %
01.08.2016 19:24 21,9 C 50 % 1016,7 hPa 0,0 l/m 5,4 km/h (1 Bft) W 261 2 min 0,000 mm 0,0 UV-I 113 W/m 11,0 C 21,9 C 12,9 km/h (3 Bft) 100,00 %
01.08.2016 19:26 21,9 C 51 % 1016,7 hPa 0,0 l/m 4,9 km/h (1 Bft) W-SW 244 2 min 0,000 mm 0,0 UV-I 107 W/m 11,3 C 21,9 C 8,0 km/h (2 Bft) 100,00 %
01.08.2016 19:28 21,9 C 50 % 1016,7 hPa 0,0 l/m 4,4 km/h (1 Bft) W 261 2 min 0,000 mm 0,0 UV-I 102 W/m 11,0 C 21,9 C 6,4 km/h (2 Bft) 100,00 %
01.08.2016 19:30 21,8 C 50 % 1016,7 hPa 0,0 l/m 4,1 km/h (1 Bft) W 265 0 min 0,000 mm 0,0 UV-I 92 W/m 10,9 C 21,8 C 6,4 km/h (2 Bft) 100,00 %
01.08.2016 19:32 21,8 C 50 % 1016,7 hPa 0,0 l/m 3,7 km/h (1 Bft) W 267 0 min 0,000 mm 0,0 UV-I 72 W/m 10,9 C 21,8 C 9,7 km/h (2 Bft) 100,00 %
01.08.2016 19:34 21,7 C 51 % 1016,7 hPa 0,0 l/m 2,6 km/h (1 Bft) N-NO 12 0 min 0,000 mm 0,0 UV-I 59 W/m 11,1 C 21,7 C 6,4 km/h (2 Bft) 100,00 %
01.08.2016 19:36 21,6 C 53 % 1016,7 hPa 0,0 l/m 1,6 km/h (1 Bft) S-SW 205 0 min 0,000 mm 0,0 UV-I 67 W/m 11,6 C 21,6 C 3,2 km/h (1 Bft) 100,00 %
01.08.2016 19:38 21,4 C 53 % 1016,7 hPa 0,0 l/m 1,5 km/h (1 Bft) S-SW 196 0 min 0,000 mm 0,0 UV-I 71 W/m 11,4 C 21,4 C 3,2 km/h (1 Bft) 97,56 %
01.08.2016 19:40 21,3 C 54 % 1016,6 hPa 0,0 l/m 2,3 km/h (1 Bft) N-NW 327 0 min 0,000 mm 0,0 UV-I 63 W/m 11,6 C 21,3 C 4,8 km/h (1 Bft) 97,87 %
01.08.2016 19:42 21,2 C 54 % 1016,6 hPa 0,0 l/m 0,9 km/h (0 Bft) N-NW 331 0 min 0,000 mm 0,0 UV-I 60 W/m 11,5 C 21,2 C 4,8 km/h (1 Bft) 100,00 %
01.08.2016 19:44 21,2 C 54 % 1016,7 hPa 0,0 l/m 2,4 km/h (1 Bft) W 269 0 min 0,000 mm 0,0 UV-I 56 W/m 11,5 C 21,2 C 4,8 km/h (1 Bft) 100,00 %
01.08.2016 19:46 21,1 C 55 % 1016,7 hPa 0,0 l/m 1,2 km/h (1 Bft) W-NW 282 0 min 0,000 mm 0,0 UV-I 53 W/m 11,7 C 21,1 C 3,2 km/h (1 Bft) 100,00 %
01.08.2016 19:48 21,1 C 55 % 1016,7 hPa 0,0 l/m 1,8 km/h (1 Bft) SW 228 0 min 0,000 mm 0,0 UV-I 53 W/m 11,7 C 21,1 C 6,4 km/h (2 Bft) 98,11 %
01.08.2016 19:50 20,9 C 56 % 1016,7 hPa 0,0 l/m 1,9 km/h (1 Bft) W-SW 246 0 min 0,000 mm 0,0 UV-I 50 W/m 11,8 C 20,9 C 3,2 km/h (1 Bft) 97,87 %
01.08.2016 19:52 20,8 C 57 % 1016,8 hPa 0,0 l/m 0,3 km/h (0 Bft) W-SW 246 0 min 0,000 mm 0,0 UV-I 43 W/m 12,0 C 20,8 C 1,6 km/h (1 Bft) 93,62 %
01.08.2016 19:54 20,8 C 56 % 1016,7 hPa 0,0 l/m 1,9 km/h (1 Bft) W-SW 258 0 min 0,000 mm 0,0 UV-I 40 W/m 11,7 C 20,8 C 4,8 km/h (1 Bft) 97,87 %
01.08.2016 19:56 20,7 C 56 % 1016,7 hPa 0,0 l/m 0,6 km/h (0 Bft) W-SW 258 0 min 0,000 mm 0,0 UV-I 38 W/m 11,6 C 20,7 C 1,6 km/h (1 Bft) 98,00 %
01.08.2016 19:58 20,7 C 57 % 1016,7 hPa 0,0 l/m 0,3 km/h (0 Bft) W-SW 258 0 min 0,000 mm 0,0 UV-I 35 W/m 11,9 C 20,7 C 1,6 km/h (1 Bft) 97,87 %
01.08.2016 20:00 20,6 C 58 % 1016,7 hPa 0,0 l/m 0,4 km/h (0 Bft) W-SW 258 0 min 0,076 mm 0,0 UV-I 32 W/m 12,0 C 20,6 C 1,6 km/h (1 Bft) 97,22 %
01.08.2016 20:02 20,5 C 57 % 1016,8 hPa 0,0 l/m 0,3 km/h (0 Bft) W-SW 258 0 min 0,000 mm 0,0 UV-I 27 W/m 11,7 C 20,5 C 1,6 km/h (1 Bft) 98,18 %
01.08.2016 20:04 20,4 C 58 % 1016,8 hPa 0,0 l/m 1,4 km/h (1 Bft) W-SW 254 0 min 0,000 mm 0,0 UV-I 23 W/m 11,9 C 20,4 C 4,8 km/h (1 Bft) 98,00 %
01.08.2016 20:06 20,3 C 57 % 1016,7 hPa 0,0 l/m 1,4 km/h (1 Bft) NW 317 0 min 0,000 mm 0,0 UV-I 19 W/m 11,5 C 20,3 C 4,8 km/h (1 Bft) 97,37 %
01.08.2016 20:08 20,3 C 57 % 1016,8 hPa 0,0 l/m 0,2 km/h (0 Bft) NW 317 0 min 0,000 mm 0,0 UV-I 18 W/m 11,5 C 20,3 C 1,6 km/h (1 Bft) 98,00 %
01.08.2016 20:10 20,2 C 58 % 1016,8 hPa 0,0 l/m 0,0 km/h (0 Bft) NW 317 0 min 0,000 mm 0,0 UV-I 18 W/m 11,7 C 20,2 C 0,0 km/h (0 Bft) 95,74 %
01.08.2016 20:12 20,1 C 60 % 1016,8 hPa 0,0 l/m 0,0 km/h (0 Bft) NW 317 0 min 0,000 mm 0,0 UV-I 18 W/m 12,1 C 20,1 C 0,0 km/h (0 Bft) 97,87 %
01.08.2016 20:14 19,9 C 60 % 1016,8 hPa 0,0 l/m 0,3 km/h (0 Bft) NW 317 0 min 0,000 mm 0,0 UV-I 18 W/m 11,9 C 19,9 C 1,6 km/h (1 Bft) 98,00 %
01.08.2016 20:16 19,9 C 60 % 1016,8 hPa 0,0 l/m 0,2 km/h (0 Bft) NW 317 0 min 0,000 mm 0,0 UV-I 18 W/m 11,9 C 19,9 C 1,6 km/h (1 Bft) 97,56 %
01.08.2016 20:18 19,8 C 60 % 1016,9 hPa 0,0 l/m 0,0 km/h (0 Bft) NW 317 0 min 0,000 mm 0,0 UV-I 18 W/m 11,8 C 19,8 C 1,6 km/h (1 Bft) 97,87 %
01.08.2016 20:20 19,8 C 60 % 1016,9 hPa 0,0 l/m 0,1 km/h (0 Bft) NW 317 0 min 0,000 mm 0,0 UV-I 16 W/m 11,8 C 19,8 C 1,6 km/h (1 Bft) 98,11 %
01.08.2016 20:22 19,7 C 61 % 1016,9 hPa 0,0 l/m 0,1 km/h (0 Bft) NW 317 0 min 0,000 mm 0,0 UV-I 15 W/m 12,0 C 19,7 C 1,6 km/h (1 Bft) 98,00 %
01.08.2016 20:24 19,6 C 61 % 1016,9 hPa 0,0 l/m 0,0 km/h (0 Bft) NW 317 2 min 0,000 mm 0,0 UV-I 14 W/m 11,9 C 19,6 C 0,0 km/h (0 Bft) 97,14 %
01.08.2016 20:26 19,5 C 63 % 1016,9 hPa 0,0 l/m 0,0 km/h (0 Bft) NW 317 2 min 0,000 mm 0,0 UV-I 12 W/m 12,3 C 19,5 C 0,0 km/h (0 Bft) 100,00 %
01.08.2016 20:28 19,4 C 62 % 1016,9 hPa 0,0 l/m 0,0 km/h (0 Bft) NW 317 2 min 0,000 mm 0,0 UV-I 12 W/m 11,9 C 19,4 C 0,0 km/h (0 Bft) 98,00 %
01.08.2016 20:30 19,4 C 62 % 1016,9 hPa 0,0 l/m 0,2 km/h (0 Bft) NW 317 0 min 0,000 mm 0,0 UV-I 11 W/m 11,9 C 19,4 C 1,6 km/h (1 Bft) 94,74 %
01.08.2016 20:32 19,4 C 61 % 1016,9 hPa 0,0 l/m 0,0 km/h (0 Bft) NW 317 0 min 0,000 mm 0,0 UV-I 10 W/m 11,7 C 19,4 C 0,0 km/h (0 Bft) 100,00 %
01.08.2016 20:34 19,4 C 61 % 1017,0 hPa 0,0 l/m 0,0 km/h (0 Bft) NW 317 0 min 0,000 mm 0,0 UV-I 9 W/m 11,7 C 19,4 C 0,0 km/h (0 Bft) 100,00 %
01.08.2016 20:36 19,4 C 61 % 1017,0 hPa 0,0 l/m 0,0 km/h (0 Bft) NW 317 0 min 0,000 mm 0,0 UV-I 7 W/m 11,7 C 19,4 C 0,0 km/h (0 Bft) 97,87 %
01.08.2016 20:38 19,3 C 62 % 1017,0 hPa 0,0 l/m 0,1 km/h (0 Bft) NW 317 0 min 0,000 mm 0,0 UV-I 7 W/m 11,8 C 19,3 C 1,6 km/h (1 Bft) 100,00 %
01.08.2016 20:40 19,3 C 66 % 1017,0 hPa 0,0 l/m 0,8 km/h (0 Bft) NW 317 0 min 0,000 mm 0,0 UV-I 6 W/m 12,8 C 19,3 C 1,6 km/h (1 Bft) 94,87 %
01.08.2016 20:42 19,2 C 67 % 1017,1 hPa 0,0 l/m 1,8 km/h (1 Bft) NW 317 0 min 0,000 mm 0,0 UV-I 5 W/m 12,9 C 19,2 C 3,2 km/h (1 Bft) 94,00 %
01.08.2016 20:44 19,0 C 67 % 1017,1 hPa 0,0 l/m 2,0 km/h (1 Bft) NW 317 0 min 0,000 mm 0,0 UV-I 4 W/m 12,7 C 19,0 C 3,2 km/h (1 Bft) 100,00 %
01.08.2016 20:46 18,9 C 68 % 1017,1 hPa 0,0 l/m 1,4 km/h (1 Bft) NW 317 0 min 0,000 mm 0,0 UV-I 0 W/m 12,9 C 18,9 C 3,2 km/h (1 Bft) 97,87 %
01.08.2016 20:48 18,8 C 70 % 1017,1 hPa 0,0 l/m 1,7 km/h (1 Bft) NW 314 0 min 0,000 mm 0,0 UV-I 0 W/m 13,2 C 18,8 C 3,2 km/h (1 Bft) 97,87 %
01.08.2016 20:50 18,6 C 71 % 1017,1 hPa 0,0 l/m 1,9 km/h (1 Bft) NW 308 0 min 0,000 mm 0,0 UV-I 0 W/m 13,2 C 18,6 C 3,2 km/h (1 Bft) 100,00 %
01.08.2016 20:52 18,3 C 71 % 1017,1 hPa 0,0 l/m 1,0 km/h (0 Bft) SW 215 0 min 0,000 mm 0,0 UV-I 0 W/m 12,9 C 18,3 C 3,2 km/h (1 Bft) 97,37 %
01.08.2016 20:54 18,1 C 72 % 1017,1 hPa 0,0 l/m 1,6 km/h (1 Bft) SW 215 0 min 0,000 mm 0,0 UV-I 0 W/m 13,0 C 18,1 C 4,8 km/h (1 Bft) 98,11 %
01.08.2016 20:56 17,8 C 72 % 1017,1 hPa 0,0 l/m 0,7 km/h (0 Bft) SW 215 0 min 0,000 mm 0,0 UV-I 0 W/m 12,7 C 17,8 C 1,6 km/h (1 Bft) 100,00 %
01.08.2016 20:58 17,7 C 71 % 1017,2 hPa 0,0 l/m 0,5 km/h (0 Bft) SW 215 0 min 0,000 mm 0,0 UV-I 0 W/m 12,4 C 17,7 C 1,6 km/h (1 Bft) 100,00 %
01.08.2016 21:00 17,6 C 72 % 1017,2 hPa 0,0 l/m 0,7 km/h (0 Bft) SW 215 0 min 0,000 mm 0,0 UV-I 0 W/m 12,5 C 17,6 C 1,6 km/h (1 Bft) 97,56 %
01.08.2016 21:02 17,5 C 73 % 1017,2 hPa 0,0 l/m 0,6 km/h (0 Bft) SW 215 0 min 0,025 mm 0,0 UV-I 0 W/m 12,6 C 17,5 C 1,6 km/h (1 Bft) 100,00 %
01.08.2016 21:04 17,4 C 74 % 1017,3 hPa 0,0 l/m 0,8 km/h (0 Bft) SW 215 0 min 0,000 mm 0,0 UV-I 0 W/m 12,7 C 17,4 C 1,6 km/h (1 Bft) 100,00 %
01.08.2016 21:06 17,3 C 74 % 1017,3 hPa 0,0 l/m 1,2 km/h (1 Bft) SW 215 0 min 0,000 mm 0,0 UV-I 0 W/m 12,6 C 17,3 C 3,2 km/h (1 Bft) 100,00 %
01.08.2016 21:08 17,3 C 75 % 1017,3 hPa 0,0 l/m 1,2 km/h (1 Bft) SW 215 0 min 0,000 mm 0,0 UV-I 0 W/m 12,8 C 17,3 C 3,2 km/h (1 Bft) 100,00 %
01.08.2016 21:10 17,3 C 75 % 1017,3 hPa 0,0 l/m 1,2 km/h (1 Bft) SW 215 0 min 0,000 mm 0,0 UV-I 0 W/m 12,8 C 17,3 C 1,6 km/h (1 Bft) 100,00 %
01.08.2016 21:12 17,3 C 75 % 1017,3 hPa 0,0 l/m 1,1 km/h (1 Bft) SW 215 0 min 0,000 mm 0,0 UV-I 0 W/m 12,8 C 17,3 C 3,2 km/h (1 Bft) 100,00 %
01.08.2016 21:16 17,1 C 76 % 1017,4 hPa 0,0 l/m 0,7 km/h (0 Bft) SW 215 0 min 0,000 mm 0,0 UV-I 0 W/m 12,8 C 17,1 C 1,6 km/h (1 Bft) 99,14 %
01.08.2016 21:18 17,1 C 76 % 1017,4 hPa 0,0 l/m 1,4 km/h (1 Bft) SW 215 0 min 0,000 mm 0,0 UV-I 0 W/m 12,8 C 17,1 C 3,2 km/h (1 Bft) 100,00 %
01.08.2016 21:20 17,1 C 75 % 1017,4 hPa 0,0 l/m 0,0 km/h (0 Bft) SW 225 0 min 0,000 mm 0,0 UV-I 0 W/m 12,6 C 17,1 C 3,2 km/h (1 Bft) 100,00 %
01.08.2016 21:25 17,1 C 75 % 1017,5 hPa 0,0 l/m 1,6 km/h (1 Bft) SW 225 0 min 0,000 mm 0,0 UV-I 0 W/m 12,6 C 17,1 C 3,2 km/h (1 Bft) 100,00 %
01.08.2016 21:30 17,1 C 76 % 1017,6 hPa 0,0 l/m 1,6 km/h (1 Bft) SW 225 0 min 0,000 mm 0,0 UV-I 0 W/m 12,8 C 17,1 C 4,8 km/h (1 Bft) 100,00 %
01.08.2016 21:35 17,0 C 76 % 1017,6 hPa 0,0 l/m 1,6 km/h (1 Bft) SW 225 0 min 0,000 mm 0,0 UV-I 0 W/m 12,7 C 17,0 C 3,2 km/h (1 Bft) 100,00 %
01.08.2016 21:40 17,0 C 75 % 1017,7 hPa 0,0 l/m 1,3 km/h (1 Bft) SW 215 0 min 0,000 mm 0,0 UV-I 0 W/m 12,5 C 17,0 C 1,6 km/h (1 Bft) 99,09 %
01.08.2016 21:46 17,0 C 77 % 1017,8 hPa 0,0 l/m 1,1 km/h (1 Bft) SW 215 0 min 0,000 mm 0,0 UV-I 0 W/m 12,9 C 17,0 C 1,6 km/h (1 Bft) 100,00 %
01.08.2016 21:48 16,9 C 78 % 1017,7 hPa 0,0 l/m 0,9 km/h (0 Bft) SW 215 0 min 0,000 mm 0,0 UV-I 0 W/m 13,0 C 16,9 C 1,6 km/h (1 Bft) 98,00 %
01.08.2016 21:50 16,9 C 78 % 1017,8 hPa 0,0 l/m 1,1 km/h (1 Bft) SW 215 0 min 0,000 mm 0,0 UV-I 0 W/m 13,0 C 16,9 C 1,6 km/h (1 Bft) 100,00 %
01.08.2016 21:52 16,8 C 78 % 1017,9 hPa 0,0 l/m 2,0 km/h (1 Bft) SW 215 0 min 0,000 mm 0,0 UV-I 0 W/m 12,9 C 16,8 C 3,2 km/h (1 Bft) 97,56 %
01.08.2016 21:54 16,8 C 78 % 1017,8 hPa 0,0 l/m 1,2 km/h (1 Bft) SW 215 0 min 0,000 mm 0,0 UV-I 0 W/m 12,9 C 16,8 C 1,6 km/h (1 Bft) 100,00 %
01.08.2016 21:56 16,7 C 78 % 1017,9 hPa 0,0 l/m 1,6 km/h (1 Bft) SW 215 0 min 0,000 mm 0,0 UV-I 0 W/m 12,8 C 16,7 C 3,2 km/h (1 Bft) 95,74 %
01.08.2016 21:58 16,7 C 78 % 1017,9 hPa 0,0 l/m 1,6 km/h (1 Bft) SW 215 0 min 0,000 mm 0,0 UV-I 0 W/m 12,8 C 16,7 C 3,2 km/h (1 Bft) 96,23 %
01.08.2016 22:00 16,6 C 78 % 1017,9 hPa 0,0 l/m 2,3 km/h (1 Bft) SW 215 0 min 0,000 mm 0,0 UV-I 0 W/m 12,7 C 16,6 C 3,2 km/h (1 Bft) 97,44 %
01.08.2016 22:02 16,6 C 79 % 1017,9 hPa 0,0 l/m 2,4 km/h (1 Bft) SW 215 0 min 0,000 mm 0,0 UV-I 0 W/m 12,9 C 16,6 C 3,2 km/h (1 Bft) 98,00 %
01.08.2016 22:04 16,5 C 78 % 1017,9 hPa 0,0 l/m 2,5 km/h (1 Bft) SW 215 0 min 0,000 mm 0,0 UV-I 0 W/m 12,6 C 16,5 C 4,8 km/h (1 Bft) 96,00 %
01.08.2016 22:06 16,4 C 78 % 1017,9 hPa 0,0 l/m 1,9 km/h (1 Bft) SW 215 0 min 0,000 mm 0,0 UV-I 0 W/m 12,6 C 16,4 C 3,2 km/h (1 Bft) 95,12 %
01.08.2016 22:08 16,4 C 79 % 1018,0 hPa 0,0 l/m 1,9 km/h (1 Bft) SW 215 0 min 0,000 mm 0,0 UV-I 0 W/m 12,7 C 16,4 C 3,2 km/h (1 Bft) 98,11 %
01.08.2016 22:10 16,4 C 78 % 1017,9 hPa 0,0 l/m 0,8 km/h (0 Bft) SW 215 0 min 0,000 mm 0,0 UV-I 0 W/m 12,6 C 16,4 C 1,6 km/h (1 Bft) 97,87 %
01.08.2016 22:12 16,3 C 79 % 1017,9 hPa 0,0 l/m 2,0 km/h (1 Bft) SW 215 0 min 0,000 mm 0,0 UV-I 0 W/m 12,6 C 16,3 C 4,8 km/h (1 Bft) 95,74 %
01.08.2016 22:14 16,3 C 79 % 1017,9 hPa 0,0 l/m 2,1 km/h (1 Bft) SW 215 0 min 0,000 mm 0,0 UV-I 0 W/m 12,6 C 16,3 C 4,8 km/h (1 Bft) 98,11 %
01.08.2016 22:16 16,4 C 79 % 1017,9 hPa 0,0 l/m 2,2 km/h (1 Bft) SW 215 0 min 0,000 mm 0,0 UV-I 0 W/m 12,7 C 16,4 C 4,8 km/h (1 Bft) 94,74 %
01.08.2016 22:18 16,4 C 78 % 1018,0 hPa 0,0 l/m 1,2 km/h (1 Bft) SW 215 0 min 0,000 mm 0,0 UV-I 0 W/m 12,6 C 16,4 C 3,2 km/h (1 Bft) 97,73 %
01.08.2016 22:20 16,5 C 77 % 1018,0 hPa 0,0 l/m 3,1 km/h (1 Bft) S-SW 208 0 min 0,000 mm 0,0 UV-I 0 W/m 12,5 C 16,5 C 4,8 km/h (1 Bft) 98,11 %
01.08.2016 22:22 16,6 C 77 % 1018,0 hPa 0,0 l/m 3,7 km/h (1 Bft) S 190 0 min 0,000 mm 0,0 UV-I 0 W/m 12,5 C 16,6 C 6,4 km/h (2 Bft) 97,87 %
01.08.2016 22:24 16,7 C 77 % 1018,0 hPa 0,0 l/m 2,9 km/h (1 Bft) S 180 0 min 0,000 mm 0,0 UV-I 0 W/m 12,6 C 16,7 C 4,8 km/h (1 Bft) 97,56 %
01.08.2016 22:26 16,7 C 76 % 1018,0 hPa 0,0 l/m 3,7 km/h (1 Bft) S 176 0 min 0,000 mm 0,0 UV-I 0 W/m 12,4 C 16,7 C 4,8 km/h (1 Bft) 100,00 %
01.08.2016 22:28 16,7 C 77 % 1018,0 hPa 0,0 l/m 3,6 km/h (1 Bft) S 176 0 min 0,000 mm 0,0 UV-I 0 W/m 12,6 C 16,7 C 6,4 km/h (2 Bft) 97,87 %
01.08.2016 22:30 16,7 C 77 % 1018,1 hPa 0,0 l/m 3,1 km/h (1 Bft) S 176 0 min 0,000 mm 0,0 UV-I 0 W/m 12,6 C 16,7 C 4,8 km/h (1 Bft) 100,00 %
01.08.2016 22:32 16,7 C 77 % 1018,1 hPa 0,0 l/m 2,6 km/h (1 Bft) S 176 0 min 0,000 mm 0,0 UV-I 0 W/m 12,6 C 16,7 C 4,8 km/h (1 Bft) 100,00 %
01.08.2016 22:34 16,7 C 78 % 1018,1 hPa 0,0 l/m 2,5 km/h (1 Bft) S 176 0 min 0,000 mm 0,0 UV-I 0 W/m 12,8 C 16,7 C 4,8 km/h (1 Bft) 100,00 %
01.08.2016 22:36 16,6 C 78 % 1018,1 hPa 0,0 l/m 2,3 km/h (1 Bft) S 184 0 min 0,000 mm 0,0 UV-I 0 W/m 12,7 C 16,6 C 4,8 km/h (1 Bft) 98,00 %
01.08.2016 22:38 16,6 C 79 % 1018,1 hPa 0,0 l/m 3,9 km/h (1 Bft) S 184 0 min 0,000 mm 0,0 UV-I 0 W/m 12,9 C 16,6 C 4,8 km/h (1 Bft) 97,87 %
01.08.2016 22:40 16,6 C 80 % 1018,0 hPa 0,0 l/m 3,9 km/h (1 Bft) S 177 0 min 0,000 mm 0,0 UV-I 0 W/m 13,1 C 16,6 C 6,4 km/h (2 Bft) 100,00 %
01.08.2016 22:42 16,6 C 80 % 1018,0 hPa 0,0 l/m 3,4 km/h (1 Bft) S 173 0 min 0,000 mm 0,0 UV-I 0 W/m 13,1 C 16,6 C 8,0 km/h (2 Bft) 97,44 %
01.08.2016 22:44 16,6 C 80 % 1018,1 hPa 0,0 l/m 2,9 km/h (1 Bft) S 173 0 min 0,000 mm 0,0 UV-I 0 W/m 13,1 C 16,6 C 4,8 km/h (1 Bft) 100,00 %
01.08.2016 22:46 16,6 C 80 % 1018,2 hPa 0,0 l/m 4,0 km/h (1 Bft) S 181 0 min 0,000 mm 0,0 UV-I 0 W/m 13,1 C 16,6 C 8,0 km/h (2 Bft) 100,00 %
01.08.2016 22:48 16,7 C 80 % 1018,1 hPa 0,0 l/m 2,7 km/h (1 Bft) S 181 0 min 0,000 mm 0,0 UV-I 0 W/m 13,2 C 16,7 C 4,8 km/h (1 Bft) 100,00 %
01.08.2016 22:50 16,7 C 80 % 1018,1 hPa 0,0 l/m 3,3 km/h (1 Bft) S 181 0 min 0,000 mm 0,0 UV-I 0 W/m 13,2 C 16,7 C 4,8 km/h (1 Bft) 100,00 %
01.08.2016 22:52 16,6 C 80 % 1018,1 hPa 0,0 l/m 3,7 km/h (1 Bft) S 181 0 min 0,000 mm 0,0 UV-I 0 W/m 13,1 C 16,6 C 4,8 km/h (1 Bft) 100,00 %
01.08.2016 22:54 16,6 C 81 % 1018,1 hPa 0,0 l/m 3,0 km/h (1 Bft) S 181 0 min 0,000 mm 0,0 UV-I 0 W/m 13,3 C 16,6 C 4,8 km/h (1 Bft) 100,00 %
01.08.2016 22:56 16,6 C 81 % 1018,1 hPa 0,0 l/m 2,4 km/h (1 Bft) S 181 0 min 0,000 mm 0,0 UV-I 0 W/m 13,3 C 16,6 C 3,2 km/h (1 Bft) 100,00 %
01.08.2016 22:58 16,6 C 81 % 1018,1 hPa 0,0 l/m 2,4 km/h (1 Bft) S 181 0 min 0,000 mm 0,0 UV-I 0 W/m 13,3 C 16,6 C 4,8 km/h (1 Bft) 100,00 %
01.08.2016 23:00 16,7 C 81 % 1018,0 hPa 0,0 l/m 2,5 km/h (1 Bft) S 179 0 min 0,000 mm 0,0 UV-I 0 W/m 13,4 C 16,7 C 4,8 km/h (1 Bft) 100,00 %
01.08.2016 23:02 16,7 C 81 % 1018,0 hPa 0,0 l/m 1,5 km/h (1 Bft) S 179 0 min 0,000 mm 0,0 UV-I 0 W/m 13,4 C 16,7 C 3,2 km/h (1 Bft) 100,00 %
01.08.2016 23:04 16,7 C 81 % 1018,1 hPa 0,0 l/m 2,2 km/h (1 Bft) S 179 0 min 0,000 mm 0,0 UV-I 0 W/m 13,4 C 16,7 C 4,8 km/h (1 Bft) 100,00 %
01.08.2016 23:06 16,8 C 81 % 1018,0 hPa 0,0 l/m 4,4 km/h (1 Bft) S-SW 193 0 min 0,000 mm 0,0 UV-I 0 W/m 13,5 C 16,8 C 6,4 km/h (2 Bft) 100,00 %
01.08.2016 23:08 16,7 C 81 % 1018,1 hPa 0,0 l/m 4,6 km/h (1 Bft) S-SW 192 0 min 0,000 mm 0,0 UV-I 0 W/m 13,4 C 16,7 C 6,4 km/h (2 Bft) 100,00 %
01.08.2016 23:10 16,7 C 81 % 1018,1 hPa 0,0 l/m 4,8 km/h (1 Bft) S-SW 194 0 min 0,000 mm 0,0 UV-I 0 W/m 13,4 C 16,7 C 6,4 km/h (2 Bft) 97,87 %
01.08.2016 23:12 16,7 C 81 % 1018,1 hPa 0,0 l/m 3,6 km/h (1 Bft) S-SW 194 0 min 0,000 mm 0,0 UV-I 0 W/m 13,4 C 16,7 C 4,8 km/h (1 Bft) 100,00 %
01.08.2016 23:14 16,7 C 81 % 1018,0 hPa 0,0 l/m 3,2 km/h (1 Bft) S 171 0 min 0,000 mm 0,0 UV-I 0 W/m 13,4 C 16,7 C 8,0 km/h (2 Bft) 100,00 %
01.08.2016 23:16 16,7 C 81 % 1018,0 hPa 0,0 l/m 2,4 km/h (1 Bft) S 171 0 min 0,000 mm 0,0 UV-I 0 W/m 13,4 C 16,7 C 6,4 km/h (2 Bft) 100,00 %
01.08.2016 23:18 16,7 C 81 % 1018,0 hPa 0,0 l/m 2,6 km/h (1 Bft) S 171 0 min 0,000 mm 0,0 UV-I 0 W/m 13,4 C 16,7 C 6,4 km/h (2 Bft) 100,00 %
01.08.2016 23:20 16,7 C 81 % 1018,0 hPa 0,0 l/m 2,9 km/h (1 Bft) S 171 0 min 0,000 mm 0,0 UV-I 0 W/m 13,4 C 16,7 C 6,4 km/h (2 Bft) 97,44 %
01.08.2016 23:22 16,7 C 81 % 1018,1 hPa 0,0 l/m 5,4 km/h (1 Bft) S 171 0 min 0,000 mm 0,0 UV-I 0 W/m 13,4 C 16,7 C 8,0 km/h (2 Bft) 100,00 %
01.08.2016 23:24 16,7 C 81 % 1018,0 hPa 0,0 l/m 3,8 km/h (1 Bft) S 171 0 min 0,000 mm 0,0 UV-I 0 W/m 13,4 C 16,7 C 8,0 km/h (2 Bft) 98,00 %
01.08.2016 23:26 16,7 C 81 % 1018,0 hPa 0,0 l/m 2,1 km/h (1 Bft) S 171 0 min 0,000 mm 0,0 UV-I 0 W/m 13,4 C 16,7 C 6,4 km/h (2 Bft) 100,00 %
01.08.2016 23:28 16,6 C 82 % 1018,0 hPa 0,0 l/m 1,6 km/h (1 Bft) S 171 0 min 0,000 mm 0,0 UV-I 0 W/m 13,5 C 16,6 C 3,2 km/h (1 Bft) 100,00 %
01.08.2016 23:30 16,6 C 82 % 1018,0 hPa 0,0 l/m 2,7 km/h (1 Bft) S 171 0 min 0,000 mm 0,0 UV-I 0 W/m 13,5 C 16,6 C 6,4 km/h (2 Bft) 100,00 %
01.08.2016 23:32 16,5 C 82 % 1018,0 hPa 0,0 l/m 2,3 km/h (1 Bft) S 171 0 min 0,000 mm 0,0 UV-I 0 W/m 13,4 C 16,5 C 6,4 km/h (2 Bft) 100,00 %
01.08.2016 23:34 16,4 C 82 % 1018,0 hPa 0,0 l/m 3,6 km/h (1 Bft) S 171 0 min 0,000 mm 0,0 UV-I 0 W/m 13,3 C 16,4 C 6,4 km/h (2 Bft) 95,74 %
01.08.2016 23:36 16,4 C 82 % 1018,0 hPa 0,0 l/m 4,5 km/h (1 Bft) S 171 0 min 0,000 mm 0,0 UV-I 0 W/m 13,3 C 16,4 C 8,0 km/h (2 Bft) 100,00 %
01.08.2016 23:38 16,4 C 82 % 1018,0 hPa 0,0 l/m 5,1 km/h (1 Bft) S 174 0 min 0,000 mm 0,0 UV-I 0 W/m 13,3 C 16,4 C 8,0 km/h (2 Bft) 98,00 %
01.08.2016 23:40 16,3 C 82 % 1018,1 hPa 0,0 l/m 3,4 km/h (1 Bft) S 173 0 min 0,000 mm 0,0 UV-I 0 W/m 13,2 C 16,3 C 4,8 km/h (1 Bft) 97,87 %
01.08.2016 23:42 16,3 C 82 % 1018,1 hPa 0,0 l/m 3,0 km/h (1 Bft) S 174 0 min 0,000 mm 0,0 UV-I 0 W/m 13,2 C 16,3 C 4,8 km/h (1 Bft) 100,00 %
01.08.2016 23:44 16,3 C 82 % 1018,1 hPa 0,0 l/m 3,7 km/h (1 Bft) S 174 0 min 0,000 mm 0,0 UV-I 0 W/m 13,2 C 16,3 C 4,8 km/h (1 Bft) 100,00 %
01.08.2016 23:46 16,2 C 83 % 1018,0 hPa 0,0 l/m 4,0 km/h (1 Bft) S 173 0 min 0,000 mm 0,0 UV-I 0 W/m 13,3 C 16,2 C 8,0 km/h (2 Bft) 98,00 %
01.08.2016 23:48 16,2 C 83 % 1018,1 hPa 0,0 l/m 3,7 km/h (1 Bft) S 175 0 min 0,000 mm 0,0 UV-I 0 W/m 13,3 C 16,2 C 4,8 km/h (1 Bft) 100,00 %
01.08.2016 23:50 16,2 C 83 % 1018,1 hPa 0,0 l/m 5,0 km/h (1 Bft) S 184 0 min 0,000 mm 0,0 UV-I 0 W/m 13,3 C 16,2 C 8,0 km/h (2 Bft) 100,00 %
01.08.2016 23:52 16,2 C 83 % 1018,1 hPa 0,0 l/m 5,8 km/h (2 Bft) S 185 0 min 0,000 mm 0,0 UV-I 0 W/m 13,3 C 16,2 C 9,7 km/h (2 Bft) 100,00 %
01.08.2016 23:54 16,1 C 83 % 1018,1 hPa 0,0 l/m 5,1 km/h (1 Bft) S-SW 202 0 min 0,000 mm 0,0 UV-I 0 W/m 13,2 C 16,1 C 8,0 km/h (2 Bft) 97,87 %
01.08.2016 23:56 16,1 C 83 % 1018,1 hPa 0,0 l/m 4,1 km/h (1 Bft) S-SW 196 0 min 0,000 mm 0,0 UV-I 0 W/m 13,2 C 16,1 C 6,4 km/h (2 Bft) 93,62 %
01.08.2016 23:58 16,1 C 83 % 1018,1 hPa 0,0 l/m 5,1 km/h (1 Bft) S-SW 194 0 min 0,000 mm 0,0 UV-I 0 W/m 13,2 C 16,1 C 8,0 km/h (2 Bft) 98,11 %
_ Min-Zeit 23:54 18:20 00:00 - 20:10 - - - - - - 18:20 08:26 20:10 13:14
Minimum _ 16,1 C 45 % 1012,8 hPa - 0,0 km/h (0 Bft) - - - - - - 10,3 C 13,7 C 0,0 km/h (0 Bft) 92,31 %
_ Max-Zeit 16:22 00:00 22:46 00:00 08:26 - - 07:12 14:00 11:56 14:14 02:08 16:24 13:02 00:02
Maximum _ 23,6 C 90 % 1018,2 hPa 0,0 l/m 21,5 km/h
SW (4 Bft)
- - 2 min 0,533 mm 6,3 UV-I 986 W/m 16,6 C 23,5 C 30,6 km/h
W-SW (5 Bft)
100,00 %
Durchschnitt _ 19,5 C 71 % 1016,1 hPa #0,0 l/m 7,4 km/h (2 Bft) W-SW - #8:44 h #4,267 mm 3,0 UV-I 384 W/m 13,7 C 18,8 C 12,8 km/h (3 Bft) 98,75 %